DW7501 Weather Reports


Display with metric or nautical units.
time (UTC)temp
F
wind
direction
speed
MPH
gust
MPH
rain 1hr
in
rain 24hr
in
rain mn
in
humidity
%
barometer
mb
20210917233602 66 21 0.0 3.0 0.00 0.00 0.00 72 1016.1
20210917233502 66 21 0.0 3.0 0.00 0.00 0.00 72 1016.2
20210917233403 66 21 0.0 3.0 0.00 0.00 0.00 72 1016.2
20210917233302 66 21 0.0 2.0 0.00 0.00 0.00 72 1016.2
20210917233202 66 21 0.0 2.0 0.00 0.00 0.00 72 1016.2
20210917233102 66 21 0.0 2.0 0.00 0.00 0.00 72 1016.1
20210917233007 66 21 0.0 2.0 0.00 0.00 0.00 72 1016.1
20210917232902 66 21 0.0 2.0 0.00 0.00 0.00 72 1016.1
20210917232802 67 22 0.0 3.0 0.00 0.00 0.00 72 1016.0
20210917232703 67 22 0.0 3.0 0.00 0.00 0.00 72 1016.0
20210917232603 67 22 1.0 3.0 0.00 0.00 0.00 73 1016.0
20210917232502 67 22 1.0 3.0 0.00 0.00 0.00 72 1016.0
20210917232402 67 22 1.0 3.0 0.00 0.00 0.00 72 1016.0
20210917232305 67 22 1.0 3.0 0.00 0.00 0.00 73 1016.0
20210917232202 67 20 1.0 5.0 0.00 0.00 0.00 72 1016.0
20210917232102 67 20 1.0 5.0 0.00 0.00 0.00 73 1016.0
20210917232004 67 17 1.0 5.0 0.00 0.00 0.00 72 1015.9
20210917231902 67 17 1.0 5.0 0.00 0.00 0.00 73 1015.9
20210917231802 67 17 1.0 5.0 0.00 0.00 0.00 73 1016.0
20210917231702 67 18 1.0 5.0 0.00 0.00 0.00 73 1015.9
20210917231602 67 19 1.0 5.0 0.00 0.00 0.00 73 1015.9
20210917231502 67 18 1.0 5.0 0.00 0.00 0.00 73 1015.9
20210917231402 67 17 2.0 5.0 0.00 0.00 0.00 73 1015.9
20210917231302 67 17 1.0 5.0 0.00 0.00 0.00 73 1015.8
20210917231203 67 16 1.0 5.0 0.00 0.00 0.00 73 1015.8
20210917231102 67 17 1.0 5.0 0.00 0.00 0.00 73 1015.8
20210917231002 67 22 2.0 8.0 0.00 0.00 0.00 73 1015.8
20210917230902 67 23 2.0 8.0 0.00 0.00 0.00 73 1015.7
20210917230803 67 24 2.0 8.0 0.00 0.00 0.00 73 1015.7
20210917230702 67 25 2.0 8.0 0.00 0.00 0.00 73 1015.7
20210917230602 67 25 2.0 8.0 0.00 0.00 0.00 73 1015.7
20210917230503 67 26 2.0 8.0 0.00 0.00 0.00 73 1015.7
20210917230402 67 27 2.0 8.0 0.00 0.00 0.00 73 1015.7
20210917230302 67 27 2.0 8.0 0.00 0.00 0.00 73 1015.7
20210917230202 67 29 2.0 8.0 0.00 0.00 0.00 73 1015.7
20210917230103 67 28 2.0 8.0 0.00 0.00 0.00 73 1015.7
20210917230007 67 26 2.0 7.0 0.00 0.00 0.00 73 1015.6
20210917225902 67 24 2.0 7.0 0.00 0.00 0.00 73 1015.7
20210917225802 67 20 2.0 9.0 0.00 0.00 0.00 73 1015.6
20210917225702 68 17 3.0 9.0 0.00 0.00 0.00 73 1015.7
20210917225602 68 17 3.0 11.0 0.00 0.00 0.00 73 1015.7
20210917225502 68 17 3.0 11.0 0.00 0.00 0.00 73 1015.6
20210917225402 68 15 3.0 11.0 0.00 0.00 0.00 73 1015.6
20210917225305 68 14 3.0 11.0 0.00 0.00 0.00 73 1015.6
20210917225203 68 13 3.0 11.0 0.00 0.00 0.00 73 1015.6
20210917225102 68 15 3.0 11.0 0.00 0.00 0.00 73 1015.6
20210917225003 68 15 3.0 11.0 0.00 0.00 0.00 73 1015.5
20210917224902 68 16 3.0 11.0 0.00 0.00 0.00 72 1015.5
20210917224803 68 20 3.0 11.0 0.00 0.00 0.00 72 1015.5
20210917224702 68 22 2.0 11.0 0.00 0.00 0.00 72 1015.4
20210917224602 68 23 2.0 11.0 0.00 0.00 0.00 73 1015.4
20210917224502 69 22 2.0 9.0 0.00 0.00 0.00 73 1015.4
20210917224402 69 24 2.0 9.0 0.00 0.00 0.00 73 1015.5
20210917224302 69 28 1.0 9.0 0.00 0.00 0.00 72 1015.4
20210917224202 69 26 1.0 4.0 0.00 0.00 0.00 72 1015.4
20210917224103 69 21 1.0 4.0 0.00 0.00 0.00 72 1015.3
20210917224003 69 21 1.0 4.0 0.00 0.00 0.00 72 1015.2
20210917223902 69 334 2.0 10.0 0.00 0.00 0.00 73 1015.2
20210917223802 69 298 2.0 10.0 0.00 0.00 0.00 73 1015.2
20210917223702 70 288 2.0 10.0 0.00 0.00 0.00 73 1015.3
20210917223603 70 275 2.0 11.0 0.00 0.00 0.00 73 1015.2
20210917223502 70 272 3.0 12.0 0.00 0.00 0.00 73 1015.3
20210917223402 70 274 4.0 19.0 0.00 0.00 0.00 73 1015.3
20210917223302 70 273 5.0 19.0 0.00 0.00 0.00 73 1015.3
20210917223202 70 271 6.0 19.0 0.00 0.00 0.00 73 1015.3
20210917223102 70 270 8.0 20.0 0.00 0.00 0.00 73 1015.3
20210917223004 70 270 9.0 20.0 0.00 0.00 0.00 73 1015.3
20210917222902 70 270 10.0 20.0 0.00 0.00 0.00 73 1015.3
20210917222802 71 270 11.0 20.0 0.00 0.00 0.00 74 1015.3
20210917222702 71 270 12.0 20.0 0.00 0.00 0.00 74 1015.4
20210917222603 71 270 12.0 20.0 0.00 0.00 0.00 73 1015.3
20210917222502 71 270 13.0 20.0 0.00 0.00 0.00 73 1015.3
20210917222402 71 268 12.0 20.0 0.00 0.00 0.00 73 1015.3
20210917222305 71 267 12.0 20.0 0.00 0.00 0.00 73 1015.2
20210917222203 72 268 12.0 20.0 0.00 0.00 0.00 73 1015.2
20210917222102 72 268 11.0 20.0 0.00 0.00 0.00 73 1015.1
20210917222003 72 266 11.0 20.0 0.00 0.00 0.00 72 1015.1
20210917221902 72 266 10.0 20.0 0.00 0.00 0.00 72 1015.1
20210917221802 72 265 10.0 15.0 0.00 0.00 0.00 72 1015.0
20210917221702 72 264 10.0 16.0 0.00 0.00 0.00 72 1015.0
20210917221602 72 263 10.0 16.0 0.00 0.00 0.00 72 1015.1
20210917221502 72 263 10.0 18.0 0.00 0.00 0.00 71 1015.1
20210917221402 72 263 11.0 18.0 0.00 0.00 0.00 71 1015.1
20210917221302 72 263 11.0 18.0 0.00 0.00 0.00 71 1015.1
20210917221202 72 262 11.0 18.0 0.00 0.00 0.00 72 1015.1
20210917221102 72 260 11.0 18.0 0.00 0.00 0.00 71 1015.0
20210917221003 72 259 11.0 18.0 0.00 0.00 0.00 71 1015.0
20210917220902 72 259 11.0 18.0 0.00 0.00 0.00 70 1015.0
20210917220802 72 258 11.0 18.0 0.00 0.00 0.00 70 1015.1
20210917220703 73 257 11.0 18.0 0.00 0.00 0.00 70 1015.1
20210917220602 73 256 11.0 18.0 0.00 0.00 0.00 70 1015.1
20210917220502 73 255 11.0 18.0 0.00 0.00 0.00 70 1015.0
20210917220402 73 254 11.0 17.0 0.00 0.00 0.00 70 1014.9
20210917220302 73 254 11.0 17.0 0.00 0.00 0.00 70 1014.8
20210917220202 73 254 11.0 17.0 0.00 0.00 0.00 70 1014.7
20210917220102 73 254 11.0 17.0 0.00 0.00 0.00 70 1014.7
20210917220005 73 254 11.0 17.0 0.00 0.00 0.00 69 1014.8
20210917215902 73 253 11.0 17.0 0.00 0.00 0.00 70 1014.8
20210917215802 73 253 11.0 17.0 0.00 0.00 0.00 70 1014.8
20210917215702 73 254 11.0 17.0 0.00 0.00 0.00 70 1014.8
20210917215602 73 254 11.0 17.0 0.00 0.00 0.00 69 1014.7
20210917215502 73 253 11.0 17.0 0.00 0.00 0.00 70 1014.8
20210917215402 73 253 11.0 17.0 0.00 0.00 0.00 70 1014.7
20210917215305 73 255 11.0 17.0 0.00 0.00 0.00 69 1014.7
20210917215202 73 253 11.0 17.0 0.00 0.00 0.00 69 1014.7
20210917215102 73 254 11.0 16.0 0.00 0.00 0.00 70 1014.6
20210917215003 73 254 10.0 16.0 0.00 0.00 0.00 70 1014.7
20210917214902 73 254 10.0 16.0 0.00 0.00 0.00 69 1014.7
20210917214802 73 255 10.0 15.0 0.00 0.00 0.00 70 1014.6
20210917214702 73 255 10.0 17.0 0.00 0.00 0.00 69 1014.6
20210917214602 73 255 10.0 17.0 0.00 0.00 0.00 69 1014.5
20210917214502 73 255 10.0 17.0 0.00 0.00 0.00 69 1014.5
20210917214402 73 255 10.0 17.0 0.00 0.00 0.00 70 1014.5
20210917214302 73 253 10.0 17.0 0.00 0.00 0.00 70 1014.4
20210917214202 73 255 10.0 17.0 0.00 0.00 0.00 70 1014.4
20210917214102 73 255 10.0 17.0 0.00 0.00 0.00 70 1014.4
20210917214003 73 256 10.0 17.0 0.00 0.00 0.00 69 1014.4
20210917213902 73 256 10.0 17.0 0.00 0.00 0.00 69 1014.3
20210917213802 73 256 10.0 17.0 0.00 0.00 0.00 69 1014.3
20210917213702 73 255 10.0 17.0 0.00 0.00 0.00 70 1014.3
20210917213602 73 256 10.0 17.0 0.00 0.00 0.00 70 1014.3
20210917213503 73 256 10.0 17.0 0.00 0.00 0.00 69 1014.3
20210917213402 73 255 10.0 17.0 0.00 0.00 0.00 69 1014.3
20210917213302 73 256 10.0 17.0 0.00 0.00 0.00 69 1014.3
20210917213202 73 255 10.0 17.0 0.00 0.00 0.00 69 1014.3
20210917213102 73 255 10.0 17.0 0.00 0.00 0.00 69 1014.2
20210917213004 73 254 10.0 17.0 0.00 0.00 0.00 69 1014.1
20210917212902 73 255 10.0 17.0 0.00 0.00 0.00 69 1014.1
20210917212802 73 256 10.0 17.0 0.00 0.00 0.00 69 1014.1
20210917212702 73 256 10.0 17.0 0.00 0.00 0.00 69 1014.1
20210917212602 73 255 11.0 16.0 0.00 0.00 0.00 69 1014.2
20210917212503 73 255 11.0 16.0 0.00 0.00 0.00 69 1014.2
20210917212402 73 256 11.0 18.0 0.00 0.00 0.00 69 1014.2
20210917212305 73 258 12.0 19.0 0.00 0.00 0.00 69 1014.3
20210917212202 73 258 12.0 19.0 0.00 0.00 0.00 69 1014.4
20210917212103 73 258 12.0 19.0 0.00 0.00 0.00 69 1014.4
20210917212002 73 259 12.0 19.0 0.00 0.00 0.00 69 1014.5
20210917211903 73 259 13.0 20.0 0.00 0.00 0.00 69 1014.5
20210917211802 73 259 13.0 20.0 0.00 0.00 0.00 68 1014.5
20210917211702 73 260 13.0 20.0 0.00 0.00 0.00 68 1014.5
20210917211602 73 261 13.0 20.0 0.00 0.00 0.00 68 1014.5
20210917211502 73 261 13.0 20.0 0.00 0.00 0.00 67 1014.5
20210917211402 73 261 13.0 20.0 0.00 0.00 0.00 67 1014.5
20210917211302 74 259 13.0 20.0 0.00 0.00 0.00 67 1014.5
20210917211202 74 258 13.0 21.0 0.00 0.00 0.00 67 1014.4
20210917211102 74 257 13.0 21.0 0.00 0.00 0.00 66 1014.4
20210917211002 74 257 13.0 21.0 0.00 0.00 0.00 66 1014.4
20210917210902 74 256 13.0 21.0 0.00 0.00 0.00 66 1014.4
20210917210802 74 257 13.0 21.0 0.00 0.00 0.00 67 1014.4
20210917210702 74 257 13.0 21.0 0.00 0.00 0.00 67 1014.4
20210917210602 74 257 13.0 21.0 0.00 0.00 0.00 67 1014.3
20210917210502 74 257 14.0 21.0 0.00 0.00 0.00 67 1014.4
20210917210402 74 258 14.0 22.0 0.00 0.00 0.00 66 1014.3
20210917210302 74 259 15.0 22.0 0.00 0.00 0.00 66 1014.3
20210917210201 74 260 15.0 22.0 0.00 0.00 0.00 68 1014.3
20210917210102 74 261 15.0 22.0 0.00 0.00 0.00 67 1014.2
20210917210004 74 262 15.0 22.0 0.00 0.00 0.00 66 1014.2
20210917205902 74 262 14.0 22.0 0.00 0.00 0.00 67 1014.2
20210917205802 74 260 14.0 22.0 0.00 0.00 0.00 67 1014.3
20210917205702 74 260 14.0 22.0 0.00 0.00 0.00 66 1014.3
20210917205602 74 259 14.0 22.0 0.00 0.00 0.00 66 1014.3
20210917205503 74 258 13.0 22.0 0.00 0.00 0.00 66 1014.3
20210917205402 74 257 13.0 22.0 0.00 0.00 0.00 66 1014.4
20210917205304 74 256 13.0 20.0 0.00 0.00 0.00 66 1014.4
20210917205202 74 255 12.0 18.0 0.00 0.00 0.00 66 1014.4
20210917205102 74 255 12.0 18.0 0.00 0.00 0.00 67 1014.4
20210917205002 74 254 13.0 18.0 0.00 0.00 0.00 66 1014.3
20210917204903 74 255 13.0 18.0 0.00 0.00 0.00 66 1014.3
20210917204802 74 257 13.0 21.0 0.00 0.00 0.00 66 1014.2
20210917204702 74 257 13.0 21.0 0.00 0.00 0.00 66 1014.3
20210917204602 74 257 13.0 21.0 0.00 0.00 0.00 66 1014.2
20210917204502 74 258 13.0 21.0 0.00 0.00 0.00 66 1014.3
20210917204401 74 259 13.0 21.0 0.00 0.00 0.00 65 1014.3
20210917204302 74 260 13.0 21.0 0.00 0.00 0.00 64 1014.3
20210917204202 74 262 13.0 22.0 0.00 0.00 0.00 65 1014.3
20210917204102 74 262 14.0 22.0 0.00 0.00 0.00 65 1014.3
20210917204003 74 263 14.0 22.0 0.00 0.00 0.00 65 1014.3
20210917203902 74 261 14.0 24.0 0.00 0.00 0.00 67 1014.3
20210917203802 74 262 15.0 24.0 0.00 0.00 0.00 65 1014.3
20210917203702 74 262 15.0 24.0 0.00 0.00 0.00 65 1014.3
20210917203602 75 263 15.0 24.0 0.00 0.00 0.00 64 1014.3
20210917203502 75 261 16.0 24.0 0.00 0.00 0.00 64 1014.2
20210917203402 75 261 16.0 31.0 0.00 0.00 0.00 64 1014.2
20210917203302 75 259 17.0 31.0 0.00 0.00 0.00 66 1014.3
20210917203202 74 259 17.0 31.0 0.00 0.00 0.00 65 1014.2
20210917203102 74 258 18.0 31.0 0.00 0.00 0.00 65 1014.2
20210917203005 74 256 18.0 31.0 0.00 0.00 0.00 64 1014.2
20210917202902 74 257 19.0 31.0 0.00 0.00 0.00 65 1014.2
20210917202802 74 256 18.0 31.0 0.00 0.00 0.00 65 1014.2
20210917202702 74 256 18.0 31.0 0.00 0.00 0.00 65 1014.1
20210917202602 74 256 18.0 31.0 0.00 0.00 0.00 64 1014.1
20210917202502 74 258 19.0 31.0 0.00 0.00 0.00 65 1014.2
20210917202402 74 257 19.0 29.0 0.00 0.00 0.00 64 1014.1
20210917202305 74 258 19.0 29.0 0.00 0.00 0.00 65 1014.2
20210917202202 74 257 19.0 29.0 0.00 0.00 0.00 64 1014.1
20210917202102 74 259 18.0 29.0 0.00 0.00 0.00 64 1014.0
20210917202002 74 259 18.0 29.0 0.00 0.00 0.00 65 1014.0
20210917201902 74 260 17.0 29.0 0.00 0.00 0.00 66 1014.0
20210917201801 74 260 18.0 29.0 0.00 0.00 0.00 66 1014.0
20210917201703 74 261 18.0 30.0 0.00 0.00 0.00 65 1013.9
20210917201602 74 261 18.0 30.0 0.00 0.00 0.00 64 1013.8
20210917201502 74 260 18.0 30.0 0.00 0.00 0.00 65 1013.9
20210917201402 74 261 17.0 30.0 0.00 0.00 0.00 64 1013.8
20210917201302 74 260 17.0 30.0 0.00 0.00 0.00 65 1013.9
20210917201202 74 261 17.0 30.0 0.00 0.00 0.00 66 1013.9
20210917201102 74 260 17.0 30.0 0.00 0.00 0.00 65 1013.9
20210917201002 74 260 18.0 30.0 0.00 0.00 0.00 64 1013.8
20210917200902 74 260 17.0 30.0 0.00 0.00 0.00 66 1013.8
20210917200801 74 259 18.0 31.0 0.00 0.00 0.00 65 1013.8
20210917200702 74 258 18.0 32.0 0.00 0.00 0.00 67 1013.8
20210917200602 74 259 19.0 32.0 0.00 0.00 0.00 66 1013.7
20210917200502 74 260 19.0 32.0 0.00 0.00 0.00 66 1013.7
20210917200402 74 262 19.0 32.0 0.00 0.00 0.00 66 1013.7
20210917200302 74 263 19.0 32.0 0.00 0.00 0.00 66 1013.7
20210917200202 74 263 19.0 32.0 0.00 0.00 0.00 65 1013.6
20210917200102 74 264 19.0 32.0 0.00 0.00 0.00 65 1013.7
20210917200005 74 265 18.0 32.0 0.00 0.00 0.00 65 1013.6
20210917195902 74 264 17.0 32.0 0.00 0.00 0.00 64 1013.7
20210917195802 74 265 16.0 32.0 0.00 0.00 0.00 63 1013.6
20210917195701 74 264 15.0 27.0 0.00 0.00 0.00 63 1013.6
20210917195601 75 263 14.0 27.0 0.00 0.00 0.00 64 1013.7
20210917195502 75 263 13.0 27.0 0.00 0.00 0.00 64 1013.7
20210917195402 75 260 12.0 27.0 0.00 0.00 0.00 63 1013.7
20210917195305 75 259 12.0 27.0 0.00 0.00 0.00 63 1013.8
20210917195202 75 258 12.0 24.0 0.00 0.00 0.00 63 1013.8
20210917195102 75 255 12.0 24.0 0.00 0.00 0.00 63 1013.8
20210917195002 75 254 12.0 24.0 0.00 0.00 0.00 63 1013.7
20210917194902 75 255 12.0 24.0 0.00 0.00 0.00 63 1013.7
20210917194802 75 254 13.0 24.0 0.00 0.00 0.00 65 1013.7
20210917194702 75 254 13.0 24.0 0.00 0.00 0.00 63 1013.6
20210917194602 75 254 14.0 24.0 0.00 0.00 0.00 63 1013.7
20210917194502 75 253 15.0 24.0 0.00 0.00 0.00 63 1013.7
20210917194401 75 252 16.0 30.0 0.00 0.00 0.00 62 1013.6
20210917194302 75 252 16.0 30.0 0.00 0.00 0.00 63 1013.6
20210917194202 75 252 16.0 31.0 0.00 0.00 0.00 64 1013.6
20210917194102 75 253 17.0 31.0 0.00 0.00 0.00 63 1013.6
20210917194002 74 252 17.0 31.0 0.00 0.00 0.00 63 1013.5
20210917193902 74 252 17.0 31.0 0.00 0.00 0.00 63 1013.5
20210917193802 74 251 17.0 31.0 0.00 0.00 0.00 64 1013.5
20210917193702 74 251 18.0 31.0 0.00 0.00 0.00 63 1013.4
20210917193601 74 252 18.0 31.0 0.00 0.00 0.00 61 1013.3
20210917193502 74 253 18.0 31.0 0.00 0.00 0.00 61 1013.4
20210917193402 74 253 18.0 31.0 0.00 0.00 0.00 62 1013.3
20210917193302 74 253 18.0 31.0 0.00 0.00 0.00 62 1013.4
20210917193201 74 253 18.0 34.0 0.00 0.00 0.00 62 1013.4
20210917193102 74 253 19.0 34.0 0.00 0.00 0.00 62 1013.5
20210917193004 75 253 19.0 34.0 0.00 0.00 0.00 61 1013.3
20210917192901 75 252 19.0 34.0 0.00 0.00 0.00 61 1013.3
20210917192802 75 252 19.0 34.0 0.00 0.00 0.00 61 1013.4
20210917192702 75 252 19.0 34.0 0.00 0.00 0.00 61 1013.3
20210917192602 75 252 19.0 34.0 0.00 0.00 0.00 61 1013.2
20210917192503 75 251 18.0 34.0 0.00 0.00 0.00 61 1013.3
20210917192402 75 251 18.0 34.0 0.00 0.00 0.00 61 1013.1
20210917192305 75 250 17.0 34.0 0.00 0.00 0.00 61 1013.2
20210917192201 75 250 17.0 29.0 0.00 0.00 0.00 61 1013.3
20210917192102 75 250 16.0 27.0 0.00 0.00 0.00 61 1013.3
20210917192002 75 251 16.0 27.0 0.00 0.00 0.00 61 1013.3
20210917191902 75 253 16.0 27.0 0.00 0.00 0.00 62 1013.4
20210917191802 75 253 16.0 27.0 0.00 0.00 0.00 63 1013.4
20210917191702 75 254 17.0 30.0 0.00 0.00 0.00 62 1013.5
20210917191602 75 254 18.0 30.0 0.00 0.00 0.00 62 1013.5
20210917191502 75 255 19.0 31.0 0.00 0.00 0.00 61 1013.4
20210917191402 74 255 19.0 31.0 0.00 0.00 0.00 61 1013.5
20210917191301 74 257 19.0 31.0 0.00 0.00 0.00 62 1013.6
20210917191201 75 257 19.0 31.0 0.00 0.00 0.00 61 1013.5
20210917191102 75 257 19.0 31.0 0.00 0.00 0.00 61 1013.5
20210917191002 75 257 19.0 31.0 0.00 0.00 0.00 62 1013.5
20210917190902 75 255 19.0 31.0 0.00 0.00 0.00 61 1013.5
20210917190802 75 254 19.0 31.0 0.00 0.00 0.00 61 1013.5
20210917190702 75 254 19.0 31.0 0.00 0.00 0.00 61 1013.5
20210917190602 75 254 19.0 31.0 0.00 0.00 0.00 60 1013.5
20210917190502 75 253 18.0 27.0 0.00 0.00 0.00 62 1013.6
20210917190401 75 253 17.0 27.0 0.00 0.00 0.00 61 1013.5
20210917190301 75 252 17.0 27.0 0.00 0.00 0.00 62 1013.6
20210917190202 75 252 17.0 27.0 0.00 0.00 0.00 61 1013.5
20210917190102 75 253 16.0 27.0 0.00 0.00 0.00 61 1013.5
20210917190005 75 254 16.0 27.0 0.00 0.00 0.00 61 1013.5
20210917185902 76 256 16.0 27.0 0.00 0.00 0.00 61 1013.5
20210917185802 76 258 15.0 27.0 0.00 0.00 0.00 61 1013.4
20210917185701 76 258 15.0 27.0 0.00 0.00 0.00 61 1013.5
20210917185601 76 258 15.0 25.0 0.00 0.00 0.00 62 1013.5
20210917185502 76 259 16.0 26.0 0.00 0.00 0.00 62 1013.5
20210917185402 76 261 16.0 26.0 0.00 0.00 0.00 63 1013.5
20210917185305 76 261 16.0 26.0 0.00 0.00 0.00 64 1013.5
20210917185202 76 260 17.0 30.0 0.00 0.00 0.00 64 1013.5
20210917185102 76 260 17.0 30.0 0.00 0.00 0.00 64 1013.5
20210917185002 76 259 18.0 30.0 0.00 0.00 0.00 63 1013.4
20210917184902 76 258 17.0 30.0 0.00 0.00 0.00 63 1013.4
20210917184802 76 257 17.0 30.0 0.00 0.00 0.00 62 1013.5
20210917184701 76 257 17.0 30.0 0.00 0.00 0.00 61 1013.4
20210917184603 77 256 17.0 30.0 0.00 0.00 0.00 61 1013.4
20210917184502 77 255 16.0 30.0 0.00 0.00 0.00 61 1013.5
20210917184402 78 252 16.0 30.0 0.00 0.00 0.00 58 1013.4
20210917184301 78 252 15.0 30.0 0.00 0.00 0.00 57 1013.5
20210917184202 79 252 14.0 28.0 0.00 0.00 0.00 58 1013.4
20210917184102 79 251 14.0 28.0 0.00 0.00 0.00 57 1013.5
20210917184002 79 250 14.0 28.0 0.00 0.00 0.00 56 1013.4
20210917183902 79 249 14.0 29.0 0.00 0.00 0.00 56 1013.3
20210917183802 80 248 15.0 29.0 0.00 0.00 0.00 55 1013.3
20210917183702 80 249 15.0 29.0 0.00 0.00 0.00 55 1013.3
20210917183602 80 248 15.0 29.0 0.00 0.00 0.00 56 1013.3
20210917183502 80 249 14.0 29.0 0.00 0.00 0.00 56 1013.3
20210917183402 80 249 14.0 29.0 0.00 0.00 0.00 56 1013.3
20210917183302 80 248 13.0 29.0 0.00 0.00 0.00 56 1013.3
20210917183202 80 248 13.0 29.0 0.00 0.00 0.00 55 1013.2
20210917183101 80 247 13.0 29.0 0.00 0.00 0.00 54 1013.3
20210917183005 80 248 12.0 29.0 0.00 0.00 0.00 55 1013.2
20210917182902 80 250 12.0 29.0 0.00 0.00 0.00 54 1013.2
20210917182802 80 252 12.0 29.0 0.00 0.00 0.00 55 1013.1
20210917182702 80 252 11.0 27.0 0.00 0.00 0.00 55 1013.1
20210917182602 80 251 10.0 23.0 0.00 0.00 0.00 55 1013.1
20210917182502 80 250 10.0 23.0 0.00 0.00 0.00 55 1013.0
20210917182401 80 250 11.0 23.0 0.00 0.00 0.00 56 1013.0
20210917182305 80 251 12.0 23.0 0.00 0.00 0.00 56 1012.9
20210917182202 80 250 12.0 23.0 0.00 0.00 0.00 57 1012.9
20210917182102 80 250 11.0 23.0 0.00 0.00 0.00 56 1012.9
20210917182002 80 249 11.0 23.0 0.00 0.00 0.00 56 1012.9
20210917181902 80 248 10.0 23.0 0.00 0.00 0.00 55 1012.8
20210917181802 80 244 9.0 23.0 0.00 0.00 0.00 55 1012.8
20210917181702 80 240 9.0 23.0 0.00 0.00 0.00 55 1012.7
20210917181603 80 239 9.0 23.0 0.00 0.00 0.00 56 1012.5
20210917181502 80 238 8.0 23.0 0.00 0.00 0.00 56 1012.4
20210917181402 80 233 7.0 20.0 0.00 0.00 0.00 57 1012.3
20210917181302 80 226 7.0 17.0 0.00 0.00 0.00 56 1012.2
20210917181201 80 220 6.0 15.0 0.00 0.00 0.00 56 1012.1
20210917181102 80 220 6.0 15.0 0.00 0.00 0.00 55 1012.0
20210917181002 80 217 6.0 15.0 0.00 0.00 0.00 55 1011.9
20210917180901 80 217 6.0 17.0 0.00 0.00 0.00 54 1011.8
20210917180801 80 215 6.0 17.0 0.00 0.00 0.00 55 1011.8
20210917180702 80 216 6.0 17.0 0.00 0.00 0.00 54 1011.7
20210917180602 80 213 6.0 17.0 0.00 0.00 0.00 56 1011.6
20210917180502 80 210 7.0 17.0 0.00 0.00 0.00 56 1011.6
20210917180402 80 210 7.0 17.0 0.00 0.00 0.00 56 1011.6
20210917180302 80 210 7.0 17.0 0.00 0.00 0.00 55 1011.6
20210917180202 80 211 7.0 17.0 0.00 0.00 0.00 55 1011.6
20210917180102 80 209 7.0 17.0 0.00 0.00 0.00 56 1011.6
20210917180004 80 208 7.0 17.0 0.00 0.00 0.00 55 1011.4
20210917175901 80 206 7.0 15.0 0.00 0.00 0.00 55 1011.3
20210917175801 80 205 7.0 15.0 0.00 0.00 0.00 56 1011.1
20210917175702 80 203 7.0 15.0 0.00 0.00 0.00 55 1011.0
20210917175602 80 205 7.0 13.0 0.00 0.00 0.00 56 1011.0
20210917175501 80 206 6.0 12.0 0.00 0.00 0.00 56 1011.0
20210917175402 80 207 6.0 11.0 0.00 0.00 0.00 56 1011.1
20210917175305 80 206 6.0 11.0 0.00 0.00 0.00 56 1011.2
20210917175202 80 205 6.0 11.0 0.00 0.00 0.00 56 1011.2
20210917175102 80 207 6.0 11.0 0.00 0.00 0.00 56 1011.3
20210917175001 79 208 6.0 11.0 0.00 0.00 0.00 56 1011.3
20210917174902 79 208 6.0 11.0 0.00 0.00 0.00 56 1011.4
20210917174802 79 212 6.0 11.0 0.00 0.00 0.00 56 1011.5
20210917174701 79 215 6.0 11.0 0.00 0.00 0.00 56 1011.6
20210917174602 79 215 6.0 16.0 0.00 0.00 0.00 56 1011.6
20210917174502 79 216 6.0 16.0 0.00 0.00 0.00 56 1011.6
20210917174402 79 218 6.0 16.0 0.00 0.00 0.00 56 1011.6
20210917174302 79 220 6.0 16.0 0.00 0.00 0.00 55 1011.7
20210917174201 79 224 5.0 16.0 0.00 0.00 0.00 55 1011.8
20210917174102 79 225 5.0 16.0 0.00 0.00 0.00 55 1011.9
20210917174002 79 228 5.0 16.0 0.00 0.00 0.00 56 1011.9
20210917173902 79 227 5.0 16.0 0.00 0.00 0.00 55 1011.9
20210917173802 79 226 5.0 16.0 0.00 0.00 0.00 55 1011.9
20210917173702 79 225 5.0 16.0 0.00 0.00 0.00 54 1011.8
20210917173602 79 224 5.0 12.0 0.00 0.00 0.00 54 1011.8
20210917173502 79 228 5.0 12.0 0.00 0.00 0.00 53 1011.8
20210917173402 79 226 5.0 11.0 0.00 0.00 0.00 55 1011.8
20210917173302 79 223 5.0 11.0 0.00 0.00 0.00 54 1011.8
20210917173202 79 219 5.0 11.0 0.00 0.00 0.00 53 1011.8
20210917173102 79 218 5.0 11.0 0.00 0.00 0.00 54 1011.8
20210917173004 79 217 5.0 11.0 0.00 0.00 0.00 53 1011.8
20210917172902 79 216 5.0 11.0 0.00 0.00 0.00 52 1011.8
20210917172802 79 213 5.0 11.0 0.00 0.00 0.00 54 1011.9
20210917172701 79 211 5.0 11.0 0.00 0.00 0.00 54 1011.9
20210917172602 79 213 5.0 15.0 0.00 0.00 0.00 55 1011.9
20210917172502 79 208 5.0 15.0 0.00 0.00 0.00 54 1011.9
20210917172402 79 209 5.0 15.0 0.00 0.00 0.00 54 1012.0
20210917172305 79 211 5.0 15.0 0.00 0.00 0.00 54 1011.9
20210917172202 79 213 6.0 15.0 0.00 0.00 0.00 55 1012.0
20210917172102 78 212 6.0 15.0 0.00 0.00 0.00 55 1012.0
20210917172002 78 210 6.0 15.0 0.00 0.00 0.00 55 1012.0
20210917171901 78 211 6.0 15.0 0.00 0.00 0.00 55 1012.0
20210917171802 78 213 6.0 15.0 0.00 0.00 0.00 54 1012.0
20210917171703 78 214 6.0 15.0 0.00 0.00 0.00 54 1012.1
20210917171602 78 213 5.0 15.0 0.00 0.00 0.00 55 1012.1
20210917171502 78 216 6.0 15.0 0.00 0.00 0.00 55 1012.1
20210917171402 78 219 6.0 15.0 0.00 0.00 0.00 54 1012.1
20210917171302 78 218 6.0 15.0 0.00 0.00 0.00 55 1012.2
20210917171202 78 219 6.0 15.0 0.00 0.00 0.00 56 1012.2
20210917171102 78 221 6.0 15.0 0.00 0.00 0.00 56 1012.3
20210917171002 78 223 6.0 15.0 0.00 0.00 0.00 56 1012.2
20210917170902 78 225 6.0 15.0 0.00 0.00 0.00 56 1012.3
20210917170801 78 225 6.0 15.0 0.00 0.00 0.00 56 1012.4
20210917170702 78 226 6.0 15.0 0.00 0.00 0.00 55 1012.3
20210917170602 78 226 6.0 15.0 0.00 0.00 0.00 55 1012.4
20210917170502 78 225 5.0 15.0 0.00 0.00 0.00 54 1012.5
20210917170402 78 225 5.0 15.0 0.00 0.00 0.00 55 1012.5
20210917170302 78 227 4.0 13.0 0.00 0.00 0.00 56 1012.6
20210917170202 78 225 4.0 12.0 0.00 0.00 0.00 57 1012.6
20210917170101 78 223 4.0 12.0 0.00 0.00 0.00 57 1012.6
20210917170004 78 218 4.0 12.0 0.00 0.00 0.00 57 1012.5
20210917165901 78 212 4.0 12.0 0.00 0.00 0.00 58 1012.4
20210917165802 78 208 5.0 12.0 0.00 0.00 0.00 58 1012.5
20210917165702 78 205 5.0 12.0 0.00 0.00 0.00 59 1012.5
20210917165602 78 206 5.0 12.0 0.00 0.00 0.00 57 1012.4
20210917165502 78 206 6.0 12.0 0.00 0.00 0.00 58 1012.5
20210917165402 77 205 6.0 13.0 0.00 0.00 0.00 58 1012.5
20210917165305 77 205 7.0 15.0 0.00 0.00 0.00 57 1012.4
20210917165201 77 204 7.0 15.0 0.00 0.00 0.00 57 1012.5
20210917165101 77 204 6.0 15.0 0.00 0.00 0.00 57 1012.6
20210917165002 77 206 6.0 15.0 0.00 0.00 0.00 58 1012.5
20210917164902 77 208 6.0 15.0 0.00 0.00 0.00 59 1012.6
20210917164801 77 210 6.0 15.0 0.00 0.00 0.00 58 1012.6
20210917164702 77 215 6.0 15.0 0.00 0.00 0.00 58 1012.6
20210917164601 77 216 5.0 15.0 0.00 0.00 0.00 58 1012.7
20210917164502 77 219 5.0 15.0 0.00 0.00 0.00 58 1012.8
20210917164401 77 220 5.0 15.0 0.00 0.00 0.00 58 1012.9
20210917164302 77 221 5.0 11.0 0.00 0.00 0.00 60 1012.9
20210917164202 77 226 5.0 11.0 0.00 0.00 0.00 61 1013.0
20210917164102 77 229 5.0 11.0 0.00 0.00 0.00 60 1013.0
20210917164001 77 231 5.0 11.0 0.00 0.00 0.00 60 1013.1
20210917163901 77 234 6.0 16.0 0.00 0.00 0.00 59 1013.2
20210917163802 77 235 6.0 16.0 0.00 0.00 0.00 58 1013.2
20210917163701 77 233 5.0 16.0 0.00 0.00 0.00 59 1013.3
20210917163601 76 233 5.0 16.0 0.00 0.00 0.00 59 1013.3
20210917163502 76 233 5.0 16.0 0.00 0.00 0.00 61 1013.4
20210917163401 76 233 5.0 16.0 0.00 0.00 0.00 60 1013.3
20210917163302 76 238 5.0 16.0 0.00 0.00 0.00 60 1013.4
20210917163202 76 239 5.0 16.0 0.00 0.00 0.00 60 1013.4
20210917163101 76 237 5.0 16.0 0.00 0.00 0.00 59 1013.4
20210917163004 76 236 4.0 16.0 0.00 0.00 0.00 59 1013.4
20210917162902 76 232 4.0 13.0 0.00 0.00 0.00 61 1013.5
20210917162801 76 234 4.0 13.0 0.00 0.00 0.00 62 1013.5
20210917162702 76 236 4.0 13.0 0.00 0.00 0.00 61 1013.5
20210917162602 76 234 4.0 13.0 0.00 0.00 0.00 61 1013.5
20210917162501 76 236 4.0 13.0 0.00 0.00 0.00 62 1013.5
20210917162402 76 236 5.0 13.0 0.00 0.00 0.00 62 1013.5
20210917162304 76 233 5.0 12.0 0.00 0.00 0.00 61 1013.6
20210917162201 76 231 5.0 13.0 0.00 0.00 0.00 61 1013.6
20210917162102 76 231 5.0 13.0 0.00 0.00 0.00 61 1013.6
20210917162002 76 231 5.0 13.0 0.00 0.00 0.00 61 1013.6
20210917161901 76 231 5.0 13.0 0.00 0.00 0.00 61 1013.7
20210917161802 76 230 4.0 13.0 0.00 0.00 0.00 62 1013.6
20210917161702 76 229 4.0 13.0 0.00 0.00 0.00 61 1013.7
20210917161602 76 230 4.0 13.0 0.00 0.00 0.00 61 1013.7
20210917161502 76 227 4.0 13.0 0.00 0.00 0.00 62 1013.7
20210917161401 76 225 4.0 13.0 0.00 0.00 0.00 62 1013.7
20210917161302 76 225 3.0 13.0 0.00 0.00 0.00 61 1013.7
20210917161202 76 220 3.0 8.0 0.00 0.00 0.00 62 1013.8
20210917161101 76 221 3.0 8.0 0.00 0.00 0.00 62 1013.8
20210917161002 76 218 3.0 8.0 0.00 0.00 0.00 62 1013.8
20210917160902 76 216 4.0 10.0 0.00 0.00 0.00 62 1013.8
20210917160801 76 214 4.0 10.0 0.00 0.00 0.00 63 1013.7
20210917160702 76 214 4.0 10.0 0.00 0.00 0.00 63 1013.8
20210917160601 75 216 4.0 10.0 0.00 0.00 0.00 64 1013.8
20210917160502 75 220 4.0 14.0 0.00 0.00 0.00 63 1013.8
20210917160401 75 220 5.0 14.0 0.00 0.00 0.00 63 1013.8
20210917160302 75 218 5.0 14.0 0.00 0.00 0.00 63 1013.8
20210917160201 75 223 5.0 14.0 0.00 0.00 0.00 63 1013.8
20210917160102 75 224 5.0 14.0 0.00 0.00 0.00 63 1013.7
20210917160004 75 224 5.0 14.0 0.00 0.00 0.00 63 1013.8
20210917155901 75 228 5.0 14.0 0.00 0.00 0.00 63 1013.8
20210917155802 75 229 5.0 14.0 0.00 0.00 0.00 63 1013.8
20210917155701 75 228 5.0 14.0 0.00 0.00 0.00 62 1013.8
20210917155601 75 227 4.0 14.0 0.00 0.00 0.00 62 1013.9
20210917155502 75 223 4.0 11.0 0.00 0.00 0.00 63 1013.8
20210917155402 75 222 4.0 11.0 0.00 0.00 0.00 64 1013.9
20210917155301 75 223 4.0 11.0 0.00 0.00 0.00 64 1014.0
20210917155201 75 220 4.0 11.0 0.00 0.00 0.00 64 1014.0
20210917155101 75 218 4.0 11.0 0.00 0.00 0.00 63 1013.9
20210917155002 75 220 4.0 11.0 0.00 0.00 0.00 64 1014.0
20210917154901 74 219 4.0 11.0 0.00 0.00 0.00 64 1014.0
20210917154802 74 221 4.0 11.0 0.00 0.00 0.00 64 1014.0
20210917154702 74 223 4.0 8.0 0.00 0.00 0.00 65 1013.9
20210917154602 74 223 4.0 9.0 0.00 0.00 0.00 65 1014.0
20210917154501 74 227 4.0 9.0 0.00 0.00 0.00 65 1014.0
20210917154402 74 232 4.0 9.0 0.00 0.00 0.00 64 1014.1
20210917154301 74 231 4.0 9.0 0.00 0.00 0.00 65 1014.1
20210917154202 74 231 4.0 9.0 0.00 0.00 0.00 65 1014.1
20210917154102 74 230 4.0 9.0 0.00 0.00 0.00 64 1014.2
20210917154002 74 231 4.0 9.0 0.00 0.00 0.00 64 1014.1
20210917153902 74 233 4.0 9.0 0.00 0.00 0.00 65 1014.1
20210917153801 74 233 4.0 9.0 0.00 0.00 0.00 65 1014.1
20210917153701 74 231 4.0 9.0 0.00 0.00 0.00 66 1014.1
20210917153602 74 231 4.0 9.0 0.00 0.00 0.00 65 1014.2
20210917153502 74 230 4.0 9.0 0.00 0.00 0.00 65 1014.2
20210917153402 74 225 4.0 9.0 0.00 0.00 0.00 65 1014.3
20210917153301 74 229 4.0 9.0 0.00 0.00 0.00 64 1014.3
20210917153201 74 231 4.0 9.0 0.00 0.00 0.00 65 1014.3
20210917153102 74 235 4.0 9.0 0.00 0.00 0.00 64 1014.3
20210917153004 74 233 4.0 11.0 0.00 0.00 0.00 65 1014.3
20210917152902 74 230 4.0 11.0 0.00 0.00 0.00 65 1014.3
20210917152802 74 230 4.0 11.0 0.00 0.00 0.00 65 1014.3
20210917152701 74 231 4.0 11.0 0.00 0.00 0.00 65 1014.3
20210917152601 73 230 4.0 11.0 0.00 0.00 0.00 65 1014.3
20210917152502 73 230 4.0 11.0 0.00 0.00 0.00 65 1014.3
20210917152401 73 234 4.0 11.0 0.00 0.00 0.00 65 1014.3
20210917152305 73 233 4.0 11.0 0.00 0.00 0.00 65 1014.4
20210917152202 73 231 4.0 11.0 0.00 0.00 0.00 65 1014.4
20210917152102 73 230 4.0 11.0 0.00 0.00 0.00 65 1014.4
20210917152002 73 231 4.0 10.0 0.00 0.00 0.00 66 1014.4
20210917151902 73 233 4.0 10.0 0.00 0.00 0.00 66 1014.4
20210917151801 73 233 4.0 10.0 0.00 0.00 0.00 65 1014.4
20210917151701 73 231 4.0 10.0 0.00 0.00 0.00 65 1014.5
20210917151602 73 234 4.0 10.0 0.00 0.00 0.00 66 1014.5
20210917151502 73 236 4.0 10.0 0.00 0.00 0.00 65 1014.4
20210917151401 73 235 4.0 10.0 0.00 0.00 0.00 66 1014.5
20210917151302 73 236 4.0 10.0 0.00 0.00 0.00 66 1014.5
20210917151202 73 239 4.0 11.0 0.00 0.00 0.00 65 1014.4
20210917151101 73 238 4.0 11.0 0.00 0.00 0.00 65 1014.3
20210917151001 73 235 4.0 11.0 0.00 0.00 0.00 66 1014.4
20210917150901 73 231 4.0 11.0 0.00 0.00 0.00 65 1014.4
20210917150802 73 232 4.0 11.0 0.00 0.00 0.00 66 1014.5
20210917150701 73 236 5.0 13.0 0.00 0.00 0.00 66 1014.5
20210917150602 73 234 5.0 13.0 0.00 0.00 0.00 65 1014.4
20210917150501 73 230 5.0 13.0 0.00 0.00 0.00 66 1014.4
20210917150401 73 231 4.0 13.0 0.00 0.00 0.00 66 1014.4
20210917150302 73 231 5.0 13.0 0.00 0.00 0.00 65 1014.3
20210917150201 73 229 5.0 13.0 0.00 0.00 0.00 66 1014.3
20210917150101 72 230 5.0 13.0 0.00 0.00 0.00 65 1014.2
20210917150005 72 230 5.0 13.0 0.00 0.00 0.00 65 1014.3
20210917145901 72 233 4.0 13.0 0.00 0.00 0.00 66 1014.3
20210917145802 72 232 4.0 13.0 0.00 0.00 0.00 66 1014.3
20210917145701 72 232 4.0 10.0 0.00 0.00 0.00 67 1014.3
20210917145602 72 235 4.0 15.0 0.00 0.00 0.00 67 1014.4
20210917145502 72 238 4.0 15.0 0.00 0.00 0.00 67 1014.4
20210917145401 72 241 5.0 15.0 0.00 0.00 0.00 67 1014.4
20210917145301 72 242 5.0 15.0 0.00 0.00 0.00 66 1014.3
20210917145201 72 242 5.0 15.0 0.00 0.00 0.00 67 1014.3
20210917145102 72 245 5.0 15.0 0.00 0.00 0.00 67 1014.3
20210917145002 72 246 6.0 15.0 0.00 0.00 0.00 66 1014.4
20210917144901 72 245 6.0 15.0 0.00 0.00 0.00 66 1014.4
20210917144801 72 245 6.0 15.0 0.00 0.00 0.00 66 1014.4
20210917144701 72 245 6.0 15.0 0.00 0.00 0.00 65 1014.3
20210917144602 72 245 6.0 15.0 0.00 0.00 0.00 67 1014.4
20210917144502 72 247 6.0 19.0 0.00 0.00 0.00 67 1014.4
20210917144402 72 245 6.0 19.0 0.00 0.00 0.00 67 1014.4
20210917144302 72 244 6.0 19.0 0.00 0.00 0.00 65 1014.4
20210917144202 72 244 7.0 19.0 0.00 0.00 0.00 66 1014.5
20210917144101 72 241 7.0 19.0 0.00 0.00 0.00 66 1014.4
20210917144002 72 240 6.0 19.0 0.00 0.00 0.00 66 1014.4
20210917143901 72 241 7.0 19.0 0.00 0.00 0.00 66 1014.5
20210917143801 72 241 6.0 19.0 0.00 0.00 0.00 65 1014.5
20210917143701 72 241 7.0 19.0 0.00 0.00 0.00 65 1014.5
20210917143601 72 240 6.0 19.0 0.00 0.00 0.00 65 1014.5
20210917143501 72 237 5.0 16.0 0.00 0.00 0.00 65 1014.3
20210917143402 72 237 5.0 16.0 0.00 0.00 0.00 64 1014.3
20210917143301 72 238 5.0 16.0 0.00 0.00 0.00 65 1014.4
20210917143201 72 237 5.0 16.0 0.00 0.00 0.00 67 1014.4
20210917143102 72 238 5.0 13.0 0.00 0.00 0.00 67 1014.3
20210917143006 72 237 5.0 13.0 0.00 0.00 0.00 67 1014.3
20210917142902 72 235 4.0 13.0 0.00 0.00 0.00 66 1014.3
20210917142801 72 235 5.0 13.0 0.00 0.00 0.00 67 1014.3
20210917142702 72 233 5.0 13.0 0.00 0.00 0.00 67 1014.3
20210917142602 71 231 5.0 13.0 0.00 0.00 0.00 68 1014.3
20210917142502 71 231 5.0 13.0 0.00 0.00 0.00 67 1014.3
20210917142401 71 228 5.0 13.0 0.00 0.00 0.00 67 1014.2
20210917142302 71 228 5.0 13.0 0.00 0.00 0.00 68 1014.2
20210917142202 71 227 5.0 13.0 0.00 0.00 0.00 68 1014.1
20210917142102 71 226 5.0 13.0 0.00 0.00 0.00 68 1014.1
20210917142002 71 226 5.0 13.0 0.00 0.00 0.00 68 1014.1
20210917141902 71 226 5.0 13.0 0.00 0.00 0.00 68 1014.2
20210917141801 71 225 5.0 13.0 0.00 0.00 0.00 68 1014.2
20210917141701 71 224 5.0 13.0 0.00 0.00 0.00 69 1014.2
20210917141601 71 224 5.0 13.0 0.00 0.00 0.00 68 1014.2
20210917141503 70 222 4.0 11.0 0.00 0.00 0.00 68 1014.2
20210917141402 70 221 4.0 11.0 0.00 0.00 0.00 69 1014.2
20210917141301 70 221 4.0 10.0 0.00 0.00 0.00 69 1014.2
20210917141202 70 220 4.0 10.0 0.00 0.00 0.00 69 1014.2
20210917141101 70 218 4.0 10.0 0.00 0.00 0.00 69 1014.2
20210917141001 70 218 4.0 10.0 0.00 0.00 0.00 69 1014.2
20210917140902 70 216 4.0 10.0 0.00 0.00 0.00 69 1014.2
20210917140801 70 215 4.0 10.0 0.00 0.00 0.00 69 1014.2
20210917140701 70 215 4.0 10.0 0.00 0.00 0.00 69 1014.2
20210917140601 70 216 4.0 10.0 0.00 0.00 0.00 69 1014.2
20210917140502 70 213 4.0 10.0 0.00 0.00 0.00 69 1014.2
20210917140401 70 215 4.0 10.0 0.00 0.00 0.00 70 1014.2
20210917140301 70 215 4.0 10.0 0.00 0.00 0.00 70 1014.2
20210917140201 70 216 4.0 10.0 0.00 0.00 0.00 70 1014.3
20210917140101 69 217 4.0 10.0 0.00 0.00 0.00 70 1014.3
20210917140006 69 219 4.0 10.0 0.00 0.00 0.00 71 1014.3
20210917135901 69 219 4.0 10.0 0.00 0.00 0.00 70 1014.3
20210917135802 69 218 3.0 10.0 0.00 0.00 0.00 71 1014.3
20210917135702 69 216 4.0 10.0 0.00 0.00 0.00 71 1014.4
20210917135601 69 214 4.0 10.0 0.00 0.00 0.00 71 1014.3
20210917135502 69 215 3.0 10.0 0.00 0.00 0.00 71 1014.4
20210917135401 69 214 3.0 10.0 0.00 0.00 0.00 70 1014.5
20210917135305 69 211 3.0 10.0 0.00 0.00 0.00 71 1014.5
20210917135202 69 209 3.0 10.0 0.00 0.00 0.00 71 1014.3
20210917135101 69 211 3.0 10.0 0.00 0.00 0.00 71 1014.4
20210917135002 69 212 3.0 8.0 0.00 0.00 0.00 71 1014.5
20210917134901 68 211 3.0 8.0 0.00 0.00 0.00 71 1014.4
20210917134802 68 214 3.0 8.0 0.00 0.00 0.00 71 1014.5
20210917134701 68 215 3.0 8.0 0.00 0.00 0.00 70 1014.5
20210917134601 68 214 3.0 8.0 0.00 0.00 0.00 71 1014.5
20210917134502 68 215 3.0 8.0 0.00 0.00 0.00 71 1014.6
20210917134402 68 215 3.0 8.0 0.00 0.00 0.00 71 1014.5
20210917134302 68 217 3.0 8.0 0.00 0.00 0.00 71 1014.6
20210917134201 68 219 3.0 7.0 0.00 0.00 0.00 71 1014.6
20210917134101 68 218 3.0 7.0 0.00 0.00 0.00 71 1014.7
20210917134002 68 215 3.0 9.0 0.00 0.00 0.00 70 1014.6
20210917133901 68 214 3.0 9.0 0.00 0.00 0.00 71 1014.7
20210917133801 68 213 3.0 9.0 0.00 0.00 0.00 71 1014.7
20210917133702 68 213 3.0 9.0 0.00 0.00 0.00 70 1014.7
20210917133601 68 212 3.0 9.0 0.00 0.00 0.00 70 1014.7
20210917133502 68 212 3.0 9.0 0.00 0.00 0.00 70 1014.7
20210917133401 68 213 3.0 9.0 0.00 0.00 0.00 70 1014.8
20210917133301 68 212 3.0 9.0 0.00 0.00 0.00 70 1014.8
20210917133201 68 212 3.0 9.0 0.00 0.00 0.00 70 1014.8
20210917133101 68 212 3.0 9.0 0.00 0.00 0.00 70 1014.7
20210917133005 68 212 3.0 8.0 0.00 0.00 0.00 70 1014.8
20210917132901 68 214 3.0 8.0 0.00 0.00 0.00 70 1014.7
20210917132801 68 213 3.0 8.0 0.00 0.00 0.00 71 1014.8
20210917132701 68 212 3.0 8.0 0.00 0.00 0.00 71 1014.8
20210917132601 68 213 3.0 8.0 0.00 0.00 0.00 71 1014.9
20210917132502 68 213 3.0 8.0 0.00 0.00 0.00 71 1014.9
20210917132402 68 212 3.0 6.0 0.00 0.00 0.00 71 1014.9
20210917132301 68 208 3.0 7.0 0.00 0.00 0.00 71 1014.9
20210917132201 67 207 3.0 7.0 0.00 0.00 0.00 71 1014.9
20210917132101 67 205 3.0 7.0 0.00 0.00 0.00 71 1014.9
20210917132001 67 202 3.0 7.0 0.00 0.00 0.00 71 1014.9
20210917131902 67 201 3.0 7.0 0.00 0.00 0.00 71 1014.9
20210917131801 67 202 3.0 7.0 0.00 0.00 0.00 71 1015.0
20210917131701 67 202 3.0 7.0 0.00 0.00 0.00 71 1015.0
20210917131602 67 201 3.0 7.0 0.00 0.00 0.00 71 1015.0
20210917131503 67 201 4.0 10.0 0.00 0.00 0.00 71 1015.0
20210917131402 67 200 3.0 10.0 0.00 0.00 0.00 71 1015.0
20210917131301 67 202 3.0 10.0 0.00 0.00 0.00 71 1015.0
20210917131201 67 199 3.0 10.0 0.00 0.00 0.00 71 1015.1
20210917131101 67 197 3.0 10.0 0.00 0.00 0.00 71 1015.1
20210917131002 67 202 3.0 10.0 0.00 0.00 0.00 71 1015.1
20210917130902 67 201 3.0 10.0 0.00 0.00 0.00 72 1015.1
20210917130801 66 201 3.0 10.0 0.00 0.00 0.00 71 1015.2
20210917130702 66 202 3.0 10.0 0.00 0.00 0.00 71 1015.2
20210917130601 66 201 3.0 10.0 0.00 0.00 0.00 71 1015.3
20210917130501 66 203 3.0 7.0 0.00 0.00 0.00 71 1015.3
20210917130401 66 203 3.0 7.0 0.00 0.00 0.00 71 1015.3
20210917130301 66 203 3.0 7.0 0.00 0.00 0.00 71 1015.2
20210917130201 66 206 3.0 7.0 0.00 0.00 0.00 71 1015.3
20210917130102 66 210 3.0 7.0 0.00 0.00 0.00 71 1015.3
20210917130005 66 208 3.0 7.0 0.00 0.00 0.00 72 1015.2
20210917125901 66 208 3.0 7.0 0.00 0.00 0.00 72 1015.3
20210917125801 66 206 3.0 8.0 0.00 0.00 0.00 72 1015.3
20210917125701 66 207 3.0 8.0 0.00 0.00 0.00 72 1015.3
20210917125602 66 208 3.0 8.0 0.00 0.00 0.00 72 1015.3
20210917125502 66 208 3.0 8.0 0.00 0.00 0.00 72 1015.3
20210917125401 66 209 3.0 8.0 0.00 0.00 0.00 72 1015.3
20210917125301 66 208 3.0 8.0 0.00 0.00 0.00 72 1015.4
20210917125202 66 208 3.0 8.0 0.00 0.00 0.00 72 1015.3
20210917125102 65 208 3.0 8.0 0.00 0.00 0.00 72 1015.3
20210917125002 65 208 3.0 8.0 0.00 0.00 0.00 72 1015.3
20210917124901 65 209 3.0 8.0 0.00 0.00 0.00 72 1015.4
20210917124801 65 212 3.0 8.0 0.00 0.00 0.00 72 1015.3
20210917124701 65 212 3.0 8.0 0.00 0.00 0.00 72 1015.3
20210917124601 65 213 3.0 8.0 0.00 0.00 0.00 72 1015.4
20210917124503 65 212 3.0 8.0 0.00 0.00 0.00 72 1015.3
20210917124402 65 214 3.0 8.0 0.00 0.00 0.00 72 1015.3
20210917124301 65 214 3.0 8.0 0.00 0.00 0.00 72 1015.3
20210917124201 65 214 3.0 8.0 0.00 0.00 0.00 73 1015.3
20210917124101 64 214 3.0 8.0 0.00 0.00 0.00 73 1015.3
20210917124001 64 215 3.0 8.0 0.00 0.00 0.00 73 1015.2
20210917123901 64 214 3.0 7.0 0.00 0.00 0.00 73 1015.3
20210917123801 64 214 3.0 7.0 0.00 0.00 0.00 73 1015.3
20210917123701 64 214 3.0 7.0 0.00 0.00 0.00 73 1015.4
20210917123602 64 213 3.0 7.0 0.00 0.00 0.00 73 1015.4
20210917123503 64 213 3.0 7.0 0.00 0.00 0.00 73 1015.4
20210917123401 64 209 3.0 7.0 0.00 0.00 0.00 73 1015.4
20210917123302 64 211 3.0 7.0 0.00 0.00 0.00 73 1015.4
20210917123204 64 210 3.0 7.0 0.00 0.00 0.00 73 1015.4
20210917123106 64 208 3.0 7.0 0.00 0.00 0.00 73 1015.4
20210917123009 64 206 3.0 7.0 0.00 0.00 0.00 73 1015.4
20210917122902 64 208 3.0 7.0 0.00 0.00 0.00 73 1015.5
20210917122802 64 209 3.0 7.0 0.00 0.00 0.00 73 1015.5
20210917122702 64 209 3.0 7.0 0.00 0.00 0.00 73 1015.4
20210917122603 64 208 3.0 7.0 0.00 0.00 0.00 73 1015.4
20210917122502 64 209 3.0 8.0 0.00 0.00 0.00 73 1015.4
20210917122403 64 208 3.0 8.0 0.00 0.00 0.00 73 1015.3
20210917122305 64 206 3.0 8.0 0.00 0.00 0.00 73 1015.3
20210917122203 64 207 3.0 8.0 0.00 0.00 0.00 73 1015.4
20210917122101 64 209 3.0 8.0 0.00 0.00 0.00 73 1015.4
20210917122012 63 209 3.0 8.0 0.00 0.00 0.00 73 1015.4
20210917121903 63 208 3.0 8.0 0.00 0.00 0.00 73 1015.4
20210917121801 63 205 3.0 8.0 0.00 0.00 0.00 73 1015.3
20210917121702 63 209 3.0 8.0 0.00 0.00 0.00 73 1015.3
20210917121601 63 212 3.0 9.0 0.00 0.00 0.00 73 1015.3
20210917121506 63 212 3.0 10.0 0.00 0.00 0.00 73 1015.4
20210917121402 63 211 3.0 10.0 0.00 0.00 0.00 73 1015.3
20210917121301 63 213 3.0 10.0 0.00 0.00 0.00 73 1015.3
20210917121203 63 215 3.0 10.0 0.00 0.00 0.00 74 1015.3
20210917121104 63 215 3.0 10.0 0.00 0.00 0.00 74 1015.3
20210917121009 63 214 3.0 10.0 0.00 0.00 0.00 74 1015.3
20210917120904 63 212 3.0 10.0 0.00 0.00 0.00 74 1015.2
20210917120801 63 214 3.0 10.0 0.00 0.00 0.00 74 1015.2
20210917120701 63 216 3.0 10.0 0.00 0.00 0.00 74 1015.3
20210917120602 63 212 3.0 10.0 0.00 0.00 0.00 74 1015.2
20210917120503 62 212 3.0 8.0 0.00 0.00 0.00 74 1015.1
20210917120401 62 212 3.0 8.0 0.00 0.00 0.00 74 1015.1
20210917120301 62 210 3.0 8.0 0.00 0.00 0.00 74 1015.2
20210917120202 62 209 3.0 8.0 0.00 0.00 0.00 74 1015.2
20210917120101 62 208 3.0 8.0 0.00 0.00 0.00 74 1015.1
20210917120010 62 208 4.0 8.0 0.00 0.00 0.00 74 1015.2
20210917115901 62 209 3.0 8.0 0.00 0.00 0.00 74 1015.1
20210917115801 62 210 3.0 8.0 0.00 0.00 0.00 74 1015.1
20210917115701 62 208 3.0 8.0 0.00 0.00 0.00 74 1015.1
20210917115601 62 210 3.0 7.0 0.00 0.00 0.00 74 1015.1
20210917115501 62 212 3.0 7.0 0.00 0.00 0.00 74 1015.1
20210917115401 62 214 3.0 7.0 0.00 0.00 0.00 74 1015.1
20210917115301 62 216 3.0 7.0 0.00 0.00 0.00 74 1015.1
20210917115202 62 214 3.0 7.0 0.00 0.00 0.00 74 1015.1
20210917115101 62 213 3.0 8.0 0.00 0.00 0.00 74 1015.1
20210917115002 62 211 3.0 8.0 0.00 0.00 0.00 74 1015.1
20210917114901 62 210 3.0 8.0 0.00 0.00 0.00 74 1015.1
20210917114801 62 207 3.0 8.0 0.00 0.00 0.00 74 1015.1
20210917114701 62 208 3.0 8.0 0.00 0.00 0.00 74 1015.1
20210917114601 62 208 3.0 8.0 0.00 0.00 0.00 74 1015.1
20210917114501 62 204 3.0 8.0 0.00 0.00 0.00 74 1015.0
20210917114401 62 202 3.0 8.0 0.00 0.00 0.00 74 1015.0
20210917114301 62 199 3.0 8.0 0.00 0.00 0.00 74 1015.0
20210917114201 62 200 3.0 8.0 0.00 0.00 0.00 74 1015.0
20210917114101 62 202 3.0 6.0 0.00 0.00 0.00 75 1015.0
20210917114001 62 204 3.0 6.0 0.00 0.00 0.00 75 1015.0
20210917113901 62 207 3.0 6.0 0.00 0.00 0.00 75 1015.0
20210917113801 62 210 3.0 6.0 0.00 0.00 0.00 75 1015.0
20210917113701 62 210 3.0 6.0 0.00 0.00 0.00 75 1015.0
20210917113601 62 209 3.0 6.0 0.00 0.00 0.00 75 1015.0
20210917113501 62 211 3.0 7.0 0.00 0.00 0.00 75 1015.0
20210917113401 62 213 3.0 7.0 0.00 0.00 0.00 75 1015.0
20210917113302 62 215 3.0 7.0 0.00 0.00 0.00 75 1015.0
20210917113201 62 214 3.0 7.0 0.00 0.00 0.00 75 1015.0
20210917113101 62 209 3.0 11.0 0.00 0.00 0.00 75 1014.9
20210917113004 62 208 3.0 11.0 0.00 0.00 0.00 75 1014.9
20210917112901 62 205 4.0 11.0 0.00 0.00 0.00 74 1014.9
20210917112801 62 204 4.0 11.0 0.00 0.00 0.00 74 1014.9
20210917112701 62 204 4.0 11.0 0.00 0.00 0.00 74 1014.8
20210917112601 62 204 4.0 11.0 0.00 0.00 0.00 74 1014.8
20210917112502 62 203 4.0 11.0 0.00 0.00 0.00 74 1014.7
20210917112402 62 201 4.0 11.0 0.00 0.00 0.00 74 1014.7
20210917112301 62 202 4.0 11.0 0.00 0.00 0.00 75 1014.7
20210917112201 62 202 5.0 11.0 0.00 0.00 0.00 75 1014.6
20210917112101 62 203 4.0 8.0 0.00 0.00 0.00 75 1014.6
20210917112001 62 203 4.0 8.0 0.00 0.00 0.00 75 1014.6
20210917111901 62 204 4.0 8.0 0.00 0.00 0.00 75 1014.6
20210917111801 62 204 4.0 9.0 0.00 0.00 0.00 75 1014.6
20210917111701 62 204 4.0 9.0 0.00 0.00 0.00 75 1014.6
20210917111601 62 204 4.0 9.0 0.00 0.00 0.00 74 1014.5
20210917111503 62 204 4.0 9.0 0.00 0.00 0.00 74 1014.5
20210917111401 62 206 4.0 9.0 0.00 0.00 0.00 74 1014.5
20210917111301 62 207 4.0 9.0 0.00 0.00 0.00 74 1014.5
20210917111202 62 208 4.0 13.0 0.00 0.00 0.00 74 1014.6
20210917111102 62 207 4.0 13.0 0.00 0.00 0.00 74 1014.5
20210917111001 62 209 4.0 13.0 0.00 0.00 0.00 74 1014.5
20210917110901 62 206 4.0 13.0 0.00 0.00 0.00 74 1014.5
20210917110801 62 208 4.0 13.0 0.00 0.00 0.00 74 1014.5
20210917110701 62 207 4.0 13.0 0.00 0.00 0.00 74 1014.5
20210917110601 62 208 4.0 13.0 0.00 0.00 0.00 74 1014.6
20210917110501 62 208 4.0 13.0 0.00 0.00 0.00 74 1014.5
20210917110401 62 207 4.0 13.0 0.00 0.00 0.00 74 1014.5
20210917110302 62 204 4.0 13.0 0.00 0.00 0.00 74 1014.6
20210917110201 62 204 4.0 8.0 0.00 0.00 0.00 74 1014.5
20210917110101 62 204 4.0 8.0 0.00 0.00 0.00 74 1014.6
20210917110004 62 202 5.0 11.0 0.00 0.00 0.00 74 1014.5
20210917105901 62 204 5.0 11.0 0.00 0.00 0.00 74 1014.5
20210917105801 62 204 5.0 11.0 0.00 0.00 0.00 74 1014.5
20210917105701 62 203 5.0 11.0 0.00 0.00 0.00 74 1014.5
20210917105601 62 203 5.0 11.0 0.00 0.00 0.00 74 1014.4
20210917105501 62 204 5.0 11.0 0.00 0.00 0.00 74 1014.5
20210917105401 62 205 5.0 11.0 0.00 0.00 0.00 74 1014.5
20210917105301 62 205 5.0 11.0 0.00 0.00 0.00 74 1014.5
20210917105201 62 206 5.0 11.0 0.00 0.00 0.00 74 1014.5
20210917105101 62 207 4.0 11.0 0.00 0.00 0.00 74 1014.5
20210917105001 62 208 4.0 9.0 0.00 0.00 0.00 74 1014.5
20210917104901 62 208 4.0 9.0 0.00 0.00 0.00 74 1014.4
20210917104802 62 207 4.0 9.0 0.00 0.00 0.00 74 1014.4
20210917104701 62 208 4.0 9.0 0.00 0.00 0.00 74 1014.5
20210917104601 62 208 4.0 9.0 0.00 0.00 0.00 74 1014.5
20210917104503 62 208 4.0 9.0 0.00 0.00 0.00 74 1014.4
20210917104401 62 208 4.0 9.0 0.00 0.00 0.00 74 1014.5
20210917104301 62 209 4.0 9.0 0.00 0.00 0.00 74 1014.4
20210917104201 62 208 4.0 8.0 0.00 0.00 0.00 74 1014.4
20210917104101 62 210 4.0 8.0 0.00 0.00 0.00 74 1014.4
20210917104001 62 210 4.0 9.0 0.00 0.00 0.00 74 1014.4
20210917103901 62 210 4.0 9.0 0.00 0.00 0.00 74 1014.4
20210917103801 62 212 4.0 9.0 0.00 0.00 0.00 74 1014.3
20210917103701 62 212 4.0 9.0 0.00 0.00 0.00 74 1014.3
20210917103601 62 214 4.0 9.0 0.00 0.00 0.00 74 1014.3
20210917103501 62 212 4.0 9.0 0.00 0.00 0.00 74 1014.3
20210917103401 62 213 4.0 9.0 0.00 0.00 0.00 74 1014.3
20210917103301 62 211 4.0 9.0 0.00 0.00 0.00 74 1014.3
20210917103201 62 212 4.0 9.0 0.00 0.00 0.00 73 1014.3
20210917103101 62 211 4.0 9.0 0.00 0.00 0.00 74 1014.3
20210917103004 62 208 4.0 12.0 0.00 0.00 0.00 74 1014.2
20210917102900 62 208 5.0 12.0 0.00 0.00 0.00 74 1014.2
20210917102801 62 208 5.0 12.0 0.00 0.00 0.00 74 1014.3
20210917102701 62 208 5.0 12.0 0.00 0.00 0.00 74 1014.2
20210917102601 62 206 5.0 12.0 0.00 0.00 0.00 74 1014.2
20210917102501 62 208 5.0 12.0 0.00 0.00 0.00 74 1014.2
20210917102401 62 207 5.0 12.0 0.00 0.00 0.00 74 1014.1
20210917102301 62 209 5.0 12.0 0.00 0.00 0.00 74 1014.1
20210917102201 62 209 5.0 12.0 0.00 0.00 0.00 74 1014.1
20210917102101 62 209 5.0 12.0 0.00 0.00 0.00 74 1014.1
20210917102001 62 211 4.0 10.0 0.00 0.00 0.00 74 1014.1
20210917101900 62 211 4.0 10.0 0.00 0.00 0.00 74 1014.1
20210917101800 62 211 4.0 9.0 0.00 0.00 0.00 74 1014.1
20210917101701 62 211 4.0 9.0 0.00 0.00 0.00 74 1014.2
20210917101601 62 213 4.0 8.0 0.00 0.00 0.00 74 1014.2
20210917101501 62 213 4.0 8.0 0.00 0.00 0.00 74 1014.2
20210917101401 62 213 3.0 8.0 0.00 0.00 0.00 74 1014.2
20210917101301 62 212 3.0 8.0 0.00 0.00 0.00 74 1014.2
20210917101201 62 213 3.0 8.0 0.00 0.00 0.00 74 1014.2
20210917101101 62 213 3.0 8.0 0.00 0.00 0.00 74 1014.2
20210917101001 62 213 3.0 8.0 0.00 0.00 0.00 74 1014.2
20210917100900 62 213 3.0 8.0 0.00 0.00 0.00 74 1014.2
20210917100801 62 211 2.0 6.0 0.00 0.00 0.00 74 1014.2
20210917100701 62 209 2.0 6.0 0.00 0.00 0.00 74 1014.2
20210917100601 62 207 2.0 6.0 0.00 0.00 0.00 74 1014.2
20210917100501 62 205 2.0 5.0 0.00 0.00 0.00 74 1014.2
20210917100401 62 202 2.0 5.0 0.00 0.00 0.00 74 1014.2
20210917100301 62 200 2.0 5.0 0.00 0.00 0.00 74 1014.2
20210917100201 62 198 2.0 5.0 0.00 0.00 0.00 74 1014.2
20210917100101 62 196 2.0 5.0 0.00 0.00 0.00 74 1014.2
20210917100004 62 193 2.0 5.0 0.00 0.00 0.00 74 1014.2
20210917095901 62 190 2.0 5.0 0.00 0.00 0.00 74 1014.2
20210917095801 62 189 2.0 5.0 0.00 0.00 0.00 74 1014.1
20210917095701 62 191 2.0 5.0 0.00 0.00 0.00 74 1014.1
20210917095601 62 191 2.0 9.0 0.00 0.00 0.00 74 1014.1
20210917095501 62 192 2.0 9.0 0.00 0.00 0.00 74 1014.1
20210917095400 62 192 2.0 9.0 0.00 0.00 0.00 74 1014.1
20210917095301 62 191 2.0 9.0 0.00 0.00 0.00 74 1014.0
20210917095201 62 190 2.0 9.0 0.00 0.00 0.00 74 1014.0
20210917095101 62 193 2.0 9.0 0.00 0.00 0.00 74 1014.0
20210917095001 62 195 2.0 9.0 0.00 0.00 0.00 74 1014.0
20210917094901 62 195 3.0 9.0 0.00 0.00 0.00 74 1013.9
20210917094801 62 196 3.0 9.0 0.00 0.00 0.00 74 1013.9
20210917094701 62 196 3.0 9.0 0.00 0.00 0.00 74 1013.9
20210917094601 62 194 3.0 6.0 0.00 0.00 0.00 74 1013.9
20210917094501 62 196 3.0 6.0 0.00 0.00 0.00 74 1014.0
20210917094401 62 200 3.0 6.0 0.00 0.00 0.00 74 1013.9
20210917094301 62 200 3.0 6.0 0.00 0.00 0.00 74 1013.9
20210917094201 62 200 3.0 6.0 0.00 0.00 0.00 74 1013.9
20210917094102 62 200 3.0 6.0 0.00 0.00 0.00 74 1013.9
20210917094001 62 201 3.0 6.0 0.00 0.00 0.00 74 1013.9
20210917093901 62 205 3.0 7.0 0.00 0.00 0.00 74 1014.0
20210917093801 62 206 3.0 7.0 0.00 0.00 0.00 74 1013.9
20210917093701 62 205 3.0 7.0 0.00 0.00 0.00 74 1014.0
20210917093601 62 209 3.0 7.0 0.00 0.00 0.00 74 1013.9
20210917093501 62 206 2.0 7.0 0.00 0.00 0.00 74 1013.9
20210917093401 62 202 3.0 7.0 0.00 0.00 0.00 75 1013.9
20210917093301 62 203 2.0 7.0 0.00 0.00 0.00 75 1013.9
20210917093201 62 204 2.0 7.0 0.00 0.00 0.00 75 1013.9
20210917093101 62 202 2.0 7.0 0.00 0.00 0.00 75 1013.9
20210917093003 62 198 2.0 7.0 0.00 0.00 0.00 75 1013.8
20210917092901 62 195 2.0 7.0 0.00 0.00 0.00 75 1013.9
20210917092801 62 192 2.0 5.0 0.00 0.00 0.00 75 1013.8
20210917092701 62 196 2.0 5.0 0.00 0.00 0.00 75 1013.8
20210917092601 62 200 2.0 5.0 0.00 0.00 0.00 75 1013.8
20210917092501 62 199 2.0 5.0 0.00 0.00 0.00 75 1013.8
20210917092401 62 199 2.0 6.0 0.00 0.00 0.00 75 1013.8
20210917092301 62 198 2.0 6.0 0.00 0.00 0.00 75 1013.8
20210917092201 62 198 2.0 6.0 0.00 0.00 0.00 75 1013.8
20210917092101 62 197 2.0 6.0 0.00 0.00 0.00 75 1013.8
20210917092001 62 199 2.0 6.0 0.00 0.00 0.00 75 1013.8
20210917091901 62 198 2.0 6.0 0.00 0.00 0.00 75 1013.8
20210917091800 62 198 2.0 6.0 0.00 0.00 0.00 75 1013.8
20210917091701 62 195 3.0 9.0 0.00 0.00 0.00 75 1013.8
20210917091601 62 193 3.0 9.0 0.00 0.00 0.00 75 1013.8
20210917091501 62 192 3.0 9.0 0.00 0.00 0.00 75 1013.8
20210917091401 62 192 2.0 9.0 0.00 0.00 0.00 75 1013.8
20210917091300 62 193 2.0 9.0 0.00 0.00 0.00 75 1013.8
20210917091201 62 194 2.0 9.0 0.00 0.00 0.00 75 1013.7
20210917091101 62 197 2.0 9.0 0.00 0.00 0.00 75 1013.7
20210917091001 62 196 2.0 9.0 0.00 0.00 0.00 75 1013.7
20210917090901 62 194 2.0 9.0 0.00 0.00 0.00 75 1013.7
20210917090801 62 194 2.0 9.0 0.00 0.00 0.00 75 1013.7
20210917090701 62 194 2.0 5.0 0.00 0.00 0.00 75 1013.7
20210917090601 62 193 2.0 7.0 0.00 0.00 0.00 75 1013.7
20210917090501 62 196 2.0 7.0 0.00 0.00 0.00 75 1013.7
20210917090401 62 196 2.0 7.0 0.00 0.00 0.00 75 1013.7
20210917090301 62 193 2.0 7.0 0.00 0.00 0.00 75 1013.7
20210917090201 62 192 2.0 7.0 0.00 0.00 0.00 75 1013.7
20210917090101 62 190 2.0 7.0 0.00 0.00 0.00 75 1013.6
20210917090004 62 189 2.0 7.0 0.00 0.00 0.00 75 1013.6
20210917085901 62 192 2.0 7.0 0.00 0.00 0.00 75 1013.6
20210917085800 62 194 2.0 7.0 0.00 0.00 0.00 75 1013.6
20210917085701 62 195 2.0 7.0 0.00 0.00 0.00 75 1013.5
20210917085601 62 197 2.0 5.0 0.00 0.00 0.00 75 1013.5
20210917085501 62 196 2.0 6.0 0.00 0.00 0.00 75 1013.6
20210917085401 62 196 2.0 6.0 0.00 0.00 0.00 75 1013.6
20210917085305 62 199 2.0 6.0 0.00 0.00 0.00 75 1013.5
20210917085201 62 198 2.0 6.0 0.00 0.00 0.00 75 1013.6
20210917085101 62 198 2.0 6.0 0.00 0.00 0.00 75 1013.5
20210917085001 62 199 2.0 6.0 0.00 0.00 0.00 75 1013.6
20210917084901 62 198 2.0 6.0 0.00 0.00 0.00 75 1013.6
20210917084801 62 197 3.0 6.0 0.00 0.00 0.00 75 1013.6
20210917084701 62 194 3.0 6.0 0.00 0.00 0.00 75 1013.6
20210917084600 62 191 3.0 7.0 0.00 0.00 0.00 75 1013.6
20210917084501 62 191 2.0 7.0 0.00 0.00 0.00 75 1013.6
20210917084401 62 189 2.0 7.0 0.00 0.00 0.00 75 1013.6
20210917084301 62 188 2.0 7.0 0.00 0.00 0.00 75 1013.6
20210917084200 62 185 2.0 9.0 0.00 0.00 0.00 75 1013.6
20210917084100 62 184 2.0 9.0 0.00 0.00 0.00 75 1013.6
20210917084002 62 184 2.0 9.0 0.00 0.00 0.00 75 1013.6
20210917083901 62 181 2.0 9.0 0.00 0.00 0.00 75 1013.5
20210917083801 62 179 2.0 9.0 0.00 0.00 0.00 75 1013.6
20210917083701 62 181 2.0 9.0 0.00 0.00 0.00 75 1013.5
20210917083601 62 179 2.0 9.0 0.00 0.00 0.00 75 1013.5
20210917083501 62 179 2.0 9.0 0.00 0.00 0.00 75 1013.5
20210917083401 62 182 3.0 9.0 0.00 0.00 0.00 74 1013.5
20210917083300 62 183 3.0 9.0 0.00 0.00 0.00 74 1013.5
20210917083201 62 182 3.0 8.0 0.00 0.00 0.00 74 1013.5
20210917083101 62 181 3.0 8.0 0.00 0.00 0.00 74 1013.5
20210917083003 62 181 3.0 8.0 0.00 0.00 0.00 74 1013.5
20210917082901 62 182 3.0 8.0 0.00 0.00 0.00 74 1013.5
20210917082801 62 181 3.0 8.0 0.00 0.00 0.00 74 1013.5
20210917082701 62 179 3.0 8.0 0.00 0.00 0.00 74 1013.5
20210917082600 62 178 3.0 8.0 0.00 0.00 0.00 74 1013.5
20210917082501 62 181 3.0 8.0 0.00 0.00 0.00 74 1013.5
20210917082401 62 182 3.0 8.0 0.00 0.00 0.00 74 1013.6
20210917082301 62 182 3.0 8.0 0.00 0.00 0.00 74 1013.6
20210917082201 62 183 2.0 7.0 0.00 0.00 0.00 74 1013.5
20210917082101 62 184 2.0 7.0 0.00 0.00 0.00 74 1013.5
20210917082001 62 183 2.0 7.0 0.00 0.00 0.00 74 1013.6
20210917081900 62 184 3.0 7.0 0.00 0.00 0.00 74 1013.6
20210917081801 62 185 3.0 7.0 0.00 0.00 0.00 74 1013.5
20210917081700 62 185 2.0 7.0 0.00 0.00 0.00 74 1013.6
20210917081600 62 186 2.0 7.0 0.00 0.00 0.00 74 1013.6
20210917081501 62 183 2.0 7.0 0.00 0.00 0.00 74 1013.6
20210917081401 62 178 2.0 7.0 0.00 0.00 0.00 74 1013.6
20210917081300 62 178 2.0 7.0 0.00 0.00 0.00 74 1013.6
20210917081201 62 178 2.0 7.0 0.00 0.00 0.00 74 1013.6
20210917081101 62 178 2.0 7.0 0.00 0.00 0.00 74 1013.6
20210917081002 62 178 2.0 7.0 0.00 0.00 0.00 74 1013.6
20210917080901 62 177 2.0 5.0 0.00 0.00 0.00 74 1013.7
20210917080800 62 177 2.0 5.0 0.00 0.00 0.00 74 1013.7
20210917080701 62 179 2.0 5.0 0.00 0.00 0.00 74 1013.7
20210917080601 62 179 2.0 5.0 0.00 0.00 0.00 74 1013.7
20210917080500 62 179 2.0 5.0 0.00 0.00 0.00 74 1013.8
20210917080401 62 178 2.0 5.0 0.00 0.00 0.00 74 1013.7
20210917080301 62 178 2.0 6.0 0.00 0.00 0.00 74 1013.8
20210917080200 62 179 2.0 6.0 0.00 0.00 0.00 74 1013.8
20210917080101 62 183 2.0 6.0 0.00 0.00 0.00 74 1013.8
20210917080003 62 182 2.0 6.0 0.00 0.00 0.00 74 1013.8
20210917075900 62 178 2.0 6.0 0.00 0.00 0.00 74 1013.8
20210917075800 62 176 2.0 6.0 0.00 0.00 0.00 74 1013.8
20210917075701 62 175 2.0 6.0 0.00 0.00 0.00 74 1013.8
20210917075601 62 175 2.0 6.0 0.00 0.00 0.00 74 1013.9
20210917075501 62 175 2.0 6.0 0.00 0.00 0.00 74 1013.9
20210917075400 62 176 2.0 6.0 0.00 0.00 0.00 74 1013.9
20210917075301 62 175 2.0 6.0 0.00 0.00 0.00 74 1013.9
20210917075201 62 173 2.0 6.0 0.00 0.00 0.00 74 1013.9
20210917075101 62 169 2.0 6.0 0.00 0.00 0.00 74 1013.9
20210917075001 62 170 1.0 6.0 0.00 0.00 0.00 74 1013.9
20210917074900 62 170 2.0 6.0 0.00 0.00 0.00 74 1013.9
20210917074801 62 173 2.0 6.0 0.00 0.00 0.00 74 1013.9
20210917074701 62 174 2.0 6.0 0.00 0.00 0.00 74 1013.9
20210917074601 62 174 2.0 6.0 0.00 0.00 0.00 74 1013.9
20210917074501 62 174 2.0 6.0 0.00 0.00 0.00 74 1013.9
20210917074400 62 175 2.0 6.0 0.00 0.00 0.00 74 1013.9
20210917074301 63 176 2.0 6.0 0.00 0.00 0.00 74 1013.9
20210917074201 63 176 2.0 6.0 0.00 0.00 0.00 74 1014.0
20210917074102 63 177 2.0 6.0 0.00 0.00 0.00 74 1014.0
20210917074001 63 177 2.0 5.0 0.00 0.00 0.00 74 1014.0
20210917073900 63 178 2.0 5.0 0.00 0.00 0.00 74 1014.1
20210917073801 63 181 2.0 5.0 0.00 0.00 0.00 74 1014.1
20210917073701 63 184 2.0 5.0 0.00 0.00 0.00 74 1014.1
20210917073601 63 182 2.0 5.0 0.00 0.00 0.00 74 1014.1
20210917073501 63 185 2.0 5.0 0.00 0.00 0.00 74 1014.1
20210917073400 63 187 2.0 9.0 0.00 0.00 0.00 74 1014.0
20210917073301 63 189 2.0 9.0 0.00 0.00 0.00 74 1014.0
20210917073201 63 194 2.0 9.0 0.00 0.00 0.00 74 1014.0
20210917073100 63 193 3.0 9.0 0.00 0.00 0.00 73 1014.0
20210917073003 63 193 3.0 9.0 0.00 0.00 0.00 74 1014.0
20210917072900 63 192 3.0 9.0 0.00 0.00 0.00 73 1014.0
20210917072801 63 191 2.0 9.0 0.00 0.00 0.00 74 1014.0
20210917072701 63 192 2.0 9.0 0.00 0.00 0.00 74 1014.0
20210917072601 63 193 3.0 9.0 0.00 0.00 0.00 74 1014.0
20210917072500 63 193 3.0 9.0 0.00 0.00 0.00 74 1014.0
20210917072401 63 192 3.0 6.0 0.00 0.00 0.00 74 1014.0
20210917072301 63 191 2.0 6.0 0.00 0.00 0.00 74 1014.0
20210917072200 63 190 3.0 7.0 0.00 0.00 0.00 74 1014.0
20210917072101 63 191 3.0 7.0 0.00 0.00 0.00 74 1014.1
20210917072001 63 192 2.0 7.0 0.00 0.00 0.00 74 1014.1
20210917071900 63 192 3.0 7.0 0.00 0.00 0.00 74 1014.1
20210917071801 62 191 3.0 7.0 0.00 0.00 0.00 74 1014.0
20210917071700 62 192 3.0 7.0 0.00 0.00 0.00 74 1014.0
20210917071601 62 195 2.0 7.0 0.00 0.00 0.00 74 1014.0
20210917071501 62 195 2.0 7.0 0.00 0.00 0.00 74 1014.0
20210917071401 62 196 2.0 7.0 0.00 0.00 0.00 74 1014.0
20210917071301 62 194 2.0 7.0 0.00 0.00 0.00 74 1014.0
20210917071200 62 190 2.0 7.0 0.00 0.00 0.00 74 1013.9
20210917071101 62 188 2.0 7.0 0.00 0.00 0.00 74 1014.0
20210917071001 62 187 2.0 7.0 0.00 0.00 0.00 74 1014.0
20210917070901 62 188 2.0 7.0 0.00 0.00 0.00 74 1014.0
20210917070801 62 187 2.0 7.0 0.00 0.00 0.00 74 1014.0
20210917070700 62 182 2.0 7.0 0.00 0.00 0.00 74 1014.0
20210917070601 62 178 2.0 7.0 0.00 0.00 0.00 74 1014.0
20210917070501 62 175 2.0 7.0 0.00 0.00 0.00 74 1014.0
20210917070401 62 171 1.0 7.0 0.00 0.00 0.00 74 1014.1
20210917070301 62 174 2.0 7.0 0.00 0.00 0.00 74 1014.1
20210917070201 62 177 1.0 7.0 0.00 0.00 0.00 74 1014.2
20210917070100 62 175 1.0 6.0 0.00 0.00 0.00 74 1014.1
20210917070003 62 174 1.0 6.0 0.00 0.00 0.00 74 1014.2
20210917065901 62 175 1.0 6.0 0.00 0.00 0.00 74 1014.2
20210917065800 62 174 1.0 6.0 0.00 0.00 0.00 74 1014.2
20210917065700 62 175 1.0 6.0 0.00 0.00 0.00 74 1014.2
20210917065601 62 174 2.0 6.0 0.00 0.00 0.00 74 1014.3
20210917065501 62 173 2.0 6.0 0.00 0.00 0.00 74 1014.3
20210917065400 62 175 2.0 6.0 0.00 0.00 0.00 74 1014.2
20210917065300 62 175 2.0 6.0 0.00 0.00 0.00 74 1014.3
20210917065201 62 175 2.0 6.0 0.00 0.00 0.00 74 1014.2
20210917065101 62 177 2.0 6.0 0.00 0.00 0.00 74 1014.2
20210917065001 62 176 2.0 6.0 0.00 0.00 0.00 74 1014.2
20210917064901 62 174 2.0 6.0 0.00 0.00 0.00 74 1014.3
20210917064801 62 174 2.0 6.0 0.00 0.00 0.00 74 1014.3
20210917064701 62 174 2.0 6.0 0.00 0.00 0.00 74 1014.3
20210917064600 62 175 2.0 5.0 0.00 0.00 0.00 74 1014.3
20210917064501 62 177 2.0 5.0 0.00 0.00 0.00 74 1014.3
20210917064401 62 175 2.0 5.0 0.00 0.00 0.00 74 1014.4
20210917064300 62 173 2.0 5.0 0.00 0.00 0.00 74 1014.4
20210917064200 62 172 2.0 5.0 0.00 0.00 0.00 74 1014.3
20210917064101 62 172 2.0 5.0 0.00 0.00 0.00 74 1014.3
20210917064002 62 171 2.0 5.0 0.00 0.00 0.00 74 1014.4
20210917063900 62 171 1.0 5.0 0.00 0.00 0.00 74 1014.4
20210917063800 62 170 1.0 5.0 0.00 0.00 0.00 74 1014.4
20210917063700 62 169 1.0 4.0 0.00 0.00 0.00 74 1014.4
20210917063601 62 168 1.0 4.0 0.00 0.00 0.00 74 1014.5
20210917063501 62 168 1.0 4.0 0.00 0.00 0.00 74 1014.5
20210917063400 62 168 1.0 4.0 0.00 0.00 0.00 74 1014.5
20210917063301 62 167 1.0 4.0 0.00 0.00 0.00 74 1014.5
20210917063201 62 168 1.0 4.0 0.00 0.00 0.00 74 1014.5
20210917063100 62 169 1.0 4.0 0.00 0.00 0.00 74 1014.5
20210917063003 62 173 2.0 4.0 0.00 0.00 0.00 74 1014.5
20210917062901 62 175 1.0 4.0 0.00 0.00 0.00 74 1014.5
20210917062801 62 177 2.0 4.0 0.00 0.00 0.00 74 1014.5
20210917062700 62 178 2.0 4.0 0.00 0.00 0.00 74 1014.5
20210917062600 62 178 2.0 4.0 0.00 0.00 0.00 74 1014.6
20210917062501 62 181 2.0 4.0 0.00 0.00 0.00 74 1014.6
20210917062401 62 181 2.0 4.0 0.00 0.00 0.00 74 1014.6
20210917062300 62 184 1.0 5.0 0.00 0.00 0.00 74 1014.6
20210917062200 62 184 1.0 5.0 0.00 0.00 0.00 74 1014.7
20210917062101 62 184 1.0 5.0 0.00 0.00 0.00 74 1014.7
20210917062001 62 183 1.0 5.0 0.00 0.00 0.00 74 1014.7
20210917061901 62 181 1.0 5.0 0.00 0.00 0.00 74 1014.7
20210917061800 62 181 1.0 5.0 0.00 0.00 0.00 74 1014.8
20210917061701 62 182 1.0 5.0 0.00 0.00 0.00 74 1014.8
20210917061601 62 183 2.0 5.0 0.00 0.00 0.00 74 1014.8
20210917061500 62 186 2.0 5.0 0.00 0.00 0.00 74 1014.8
20210917061401 62 184 2.0 5.0 0.00 0.00 0.00 74 1014.8
20210917061301 62 182 1.0 5.0 0.00 0.00 0.00 74 1014.8
20210917061200 62 183 2.0 5.0 0.00 0.00 0.00 74 1014.8
20210917061100 62 186 2.0 5.0 0.00 0.00 0.00 74 1014.8
20210917061001 62 187 2.0 5.0 0.00 0.00 0.00 74 1014.8
20210917060900 62 189 2.0 5.0 0.00 0.00 0.00 74 1014.8
20210917060801 62 191 2.0 5.0 0.00 0.00 0.00 74 1014.9
20210917060701 62 194 2.0 5.0 0.00 0.00 0.00 74 1014.9
20210917060601 62 194 2.0 6.0 0.00 0.00 0.00 74 1014.9
20210917060500 62 193 2.0 6.0 0.00 0.00 0.00 74 1014.9
20210917060400 62 194 2.0 6.0 0.00 0.00 0.00 74 1015.0
20210917060301 62 197 2.0 6.0 0.00 0.00 0.00 74 1015.0
20210917060200 62 197 2.0 6.0 0.00 0.00 0.00 74 1015.0
20210917060100 62 196 2.0 6.0 0.00 0.00 0.00 74 1015.0
20210917060003 62 196 2.0 6.0 0.00 0.00 0.00 74 1015.0
20210917055901 62 195 2.0 6.0 0.00 0.00 0.00 74 1015.0
20210917055800 62 193 2.0 6.0 0.00 0.00 0.00 74 1015.0
20210917055700 62 193 2.0 6.0 0.00 0.00 0.00 74 1015.0
20210917055601 62 193 2.0 6.0 0.00 0.00 0.00 74 1014.9
20210917055501 62 195 2.0 6.0 0.00 0.00 0.00 74 1015.0
20210917055401 62 194 2.0 6.0 0.00 0.00 0.00 74 1014.9
20210917055301 62 192 2.0 5.0 0.00 0.00 0.00 74 1015.0
20210917055201 62 191 2.0 5.0 0.00 0.00 0.00 74 1015.0
20210917055100 62 192 2.0 5.0 0.00 0.00 0.00 74 1015.0
20210917055001 62 192 2.0 5.0 0.00 0.00 0.00 74 1015.0
20210917054901 62 194 2.0 5.0 0.00 0.00 0.00 74 1015.0
20210917054800 62 197 2.0 5.0 0.00 0.00 0.00 74 1015.0
20210917054701 62 191 2.0 5.0 0.00 0.00 0.00 74 1015.0
20210917054601 62 189 2.0 5.0 0.00 0.00 0.00 74 1015.0
20210917054500 62 184 2.0 5.0 0.00 0.00 0.00 74 1015.0
20210917054401 62 182 2.0 5.0 0.00 0.00 0.00 74 1015.1
20210917054301 62 181 2.0 5.0 0.00 0.00 0.00 74 1015.1
20210917054201 62 178 1.0 5.0 0.00 0.00 0.00 74 1015.0
20210917054100 62 177 2.0 5.0 0.00 0.00 0.00 74 1015.0
20210917054001 62 175 1.0 5.0 0.00 0.00 0.00 74 1015.0
20210917053901 62 173 1.0 5.0 0.00 0.00 0.00 74 1015.0
20210917053800 62 171 1.0 5.0 0.00 0.00 0.00 74 1015.0
20210917053700 62 171 1.0 5.0 0.00 0.00 0.00 74 1015.0
20210917053601 62 176 1.0 5.0 0.00 0.00 0.00 74 1015.0
20210917053501 62 179 1.0 5.0 0.00 0.00 0.00 74 1015.0
20210917053400 62 186 1.0 5.0 0.00 0.00 0.00 74 1015.0
20210917053300 62 189 1.0 5.0 0.00 0.00 0.00 74 1015.0
20210917053201 62 191 2.0 4.0 0.00 0.00 0.00 74 1015.1
20210917053100 62 193 2.0 4.0 0.00 0.00 0.00 74 1015.1
20210917053003 62 192 2.0 5.0 0.00 0.00 0.00 74 1015.1
20210917052901 62 191 2.0 5.0 0.00 0.00 0.00 74 1015.2
20210917052801 62 190 2.0 5.0 0.00 0.00 0.00 74 1015.2
20210917052700 62 191 2.0 5.0 0.00 0.00 0.00 74 1015.4
20210917052600 62 189 2.0 7.0 0.00 0.00 0.00 74 1015.4
20210917052501 62 185 2.0 7.0 0.00 0.00 0.00 74 1015.3
20210917052401 62 183 2.0 7.0 0.00 0.00 0.00 74 1015.4
20210917052300 62 179 2.0 7.0 0.00 0.00 0.00 74 1015.3
20210917052200 62 175 2.0 7.0 0.00 0.00 0.00 74 1015.3
20210917052100 62 174 2.0 7.0 0.00 0.00 0.00 74 1015.3
20210917052001 62 175 2.0 7.0 0.00 0.00 0.00 74 1015.4
20210917051900 62 172 2.0 7.0 0.00 0.00 0.00 74 1015.4
20210917051800 62 175 2.0 7.0 0.00 0.00 0.00 74 1015.4
20210917051700 62 175 2.0 7.0 0.00 0.00 0.00 74 1015.4
20210917051601 62 175 2.0 6.0 0.00 0.00 0.00 74 1015.4
20210917051500 62 176 2.0 6.0 0.00 0.00 0.00 74 1015.4
20210917051400 62 174 2.0 6.0 0.00 0.00 0.00 74 1015.4
20210917051301 62 175 2.0 6.0 0.00 0.00 0.00 74 1015.4
20210917051201 62 179 2.0 6.0 0.00 0.00 0.00 74 1015.4
20210917051101 62 182 2.0 6.0 0.00 0.00 0.00 74 1015.4
20210917051000 62 181 2.0 6.0 0.00 0.00 0.00 74 1015.5
20210917050900 62 184 2.0 5.0 0.00 0.00 0.00 74 1015.4
20210917050801 62 182 2.0 5.0 0.00 0.00 0.00 74 1015.4
20210917050702 62 181 2.0 5.0 0.00 0.00 0.00 74 1015.4
20210917050600 62 178 2.0 5.0 0.00 0.00 0.00 74 1015.4
20210917050500 62 177 2.0 5.0 0.00 0.00 0.00 74 1015.5
20210917050401 62 181 2.0 5.0 0.00 0.00 0.00 74 1015.5
20210917050300 62 182 2.0 5.0 0.00 0.00 0.00 74 1015.5
20210917050200 62 178 2.0 5.0 0.00 0.00 0.00 74 1015.5
20210917050101 62 179 2.0 5.0 0.00 0.00 0.00 74 1015.5
20210917050003 62 179 2.0 5.0 0.00 0.00 0.00 74 1015.6
20210917045900 62 179 2.0 5.0 0.00 0.00 0.00 74 1015.5
20210917045800 62 179 2.0 6.0 0.00 0.00 0.00 74 1015.6
20210917045700 62 178 2.0 6.0 0.00 0.00 0.00 74 1015.6
20210917045601 62 181 2.0 6.0 0.00 0.00 0.00 74 1015.6
20210917045500 62 181 2.0 6.0 0.00 0.00 0.00 74 1015.6
20210917045401 62 179 2.0 6.0 0.00 0.00 0.00 74 1015.6
20210917045300 62 177 2.0 6.0 0.00 0.00 0.00 74 1015.6
20210917045200 62 177 1.0 6.0 0.00 0.00 0.00 74 1015.6
20210917045101 62 175 1.0 6.0 0.00 0.00 0.00 74 1015.6
20210917045001 62 172 1.0 6.0 0.00 0.00 0.00 74 1015.6
20210917044900 62 170 1.0 6.0 0.00 0.00 0.00 74 1015.6
20210917044800 62 170 1.0 6.0 0.00 0.00 0.00 74 1015.6
20210917044700 62 172 1.0 6.0 0.00 0.00 0.00 74 1015.6
20210917044600 62 171 1.0 6.0 0.00 0.00 0.00 74 1015.6
20210917044501 62 170 1.0 6.0 0.00 0.00 0.00 74 1015.7
20210917044400 62 169 1.0 6.0 0.00 0.00 0.00 74 1015.7
20210917044300 62 167 1.0 6.0 0.00 0.00 0.00 74 1015.7
20210917044201 62 167 2.0 6.0 0.00 0.00 0.00 74 1015.7
20210917044101 62 166 1.0 6.0 0.00 0.00 0.00 74 1015.7
20210917044001 62 167 1.0 6.0 0.00 0.00 0.00 74 1015.7
20210917043900 62 167 1.0 6.0 0.00 0.00 0.00 74 1015.8
20210917043800 62 167 1.0 5.0 0.00 0.00 0.00 74 1015.7
20210917043702 62 165 1.0 5.0 0.00 0.00 0.00 74 1015.7
20210917043600 62 162 1.0 5.0 0.00 0.00 0.00 74 1015.8
20210917043501 62 162 1.0 5.0 0.00 0.00 0.00 74 1015.8
20210917043401 62 162 1.0 5.0 0.00 0.00 0.00 74 1015.7
20210917043300 62 162 1.0 5.0 0.00 0.00 0.00 74 1015.7
20210917043201 62 159 1.0 4.0 0.00 0.00 0.00 74 1015.8
20210917043101 62 160 1.0 4.0 0.00 0.00 0.00 74 1015.7
20210917043002 62 161 1.0 4.0 0.00 0.00 0.00 74 1015.7
20210917042901 62 161 1.0 4.0 0.00 0.00 0.00 74 1015.7
20210917042800 62 161 1.0 4.0 0.00 0.00 0.00 74 1015.7
20210917042701 62 161 1.0 4.0 0.00 0.00 0.00 74 1015.7
20210917042600 62 162 1.0 4.0 0.00 0.00 0.00 74 1015.7
20210917042501 62 162 1.0 4.0 0.00 0.00 0.00 74 1015.6
20210917042400 62 162 1.0 4.0 0.00 0.00 0.00 74 1015.5
20210917042300 62 163 1.0 4.0 0.00 0.00 0.00 74 1015.5
20210917042200 62 168 1.0 5.0 0.00 0.00 0.00 74 1015.5
20210917042101 62 168 1.0 5.0 0.00 0.00 0.00 74 1015.5
20210917042000 62 169 1.0 5.0 0.00 0.00 0.00 74 1015.6
20210917041900 62 170 1.0 5.0 0.00 0.00 0.00 74 1015.6
20210917041801 62 171 1.0 5.0 0.00 0.00 0.00 74 1015.6
20210917041700 62 171 1.0 5.0 0.00 0.00 0.00 74 1015.7
20210917041600 62 173 0.0 5.0 0.00 0.00 0.00 74 1015.6
20210917041501 62 174 0.0 5.0 0.00 0.00 0.00 74 1015.6
20210917041401 62 174 1.0 5.0 0.00 0.00 0.00 74 1015.6
20210917041301 62 174 1.0 5.0 0.00 0.00 0.00 74 1015.6
20210917041201 62 176 0.0 3.0 0.00 0.00 0.00 74 1015.6
20210917041100 62 176 0.0 3.0 0.00 0.00 0.00 74 1015.6
20210917041001 62 175 0.0 3.0 0.00 0.00 0.00 74 1015.6
20210917040901 62 175 0.0 3.0 0.00 0.00 0.00 74 1015.6
20210917040801 62 175 0.0 3.0 0.00 0.00 0.00 74 1015.6
20210917040701 62 176 0.0 3.0 0.00 0.00 0.00 74 1015.7
20210917040601 62 176 0.0 3.0 0.00 0.00 0.00 74 1015.7
20210917040501 62 176 0.0 3.0 0.00 0.00 0.00 74 1015.7
20210917040401 62 176 0.0 3.0 0.00 0.00 0.00 74 1015.7
20210917040301 62 175 0.0 3.0 0.00 0.00 0.00 74 1015.7
20210917040201 62 175 0.0 2.0 0.00 0.00 0.00 74 1015.8
20210917040100 62 175 0.0 2.0 0.00 0.00 0.00 74 1015.8
20210917040008 62 175 0.0 2.0 0.00 0.00 0.00 74 1015.8
20210917035900 62 175 0.0 2.0 0.00 0.00 0.00 74 1015.8
20210917035801 62 175 0.0 2.0 0.00 0.00 0.00 75 1015.8
20210917035701 63 175 0.0 2.0 0.00 0.00 0.00 75 1015.8
20210917035600 63 175 0.0 2.0 0.00 0.00 0.00 75 1015.8
20210917035500 63 175 0.0 2.0 0.00 0.00 0.00 75 1015.8
20210917035401 63 175 0.0 2.0 0.00 0.00 0.00 75 1015.7
20210917035301 63 175 0.0 1.0 0.00 0.00 0.00 75 1015.7
20210917035200 63 175 0.0 1.0 0.00 0.00 0.00 75 1015.6
20210917035100 63 175 0.0 1.0 0.00 0.00 0.00 75 1015.6
20210917035001 63 175 0.0 1.0 0.00 0.00 0.00 75 1015.6
20210917034900 63 175 0.0 1.0 0.00 0.00 0.00 74 1015.7
20210917034800 63 175 0.0 1.0 0.00 0.00 0.00 74 1015.6
20210917034700 63 175 0.0 1.0 0.00 0.00 0.00 74 1015.7
20210917034601 63 175 0.0 1.0 0.00 0.00 0.00 74 1015.7
20210917034500 63 175 0.0 1.0 0.00 0.00 0.00 74 1015.7
20210917034400 63 175 0.0 1.0 0.00 0.00 0.00 74 1015.7
20210917034300 63 175 0.0 2.0 0.00 0.00 0.00 74 1015.7
20210917034200 63 175 0.0 2.0 0.00 0.00 0.00 74 1015.7
20210917034101 63 175 0.0 2.0 0.00 0.00 0.00 74 1015.7
20210917034000 63 175 0.0 2.0 0.00 0.00 0.00 74 1015.7
20210917033901 63 174 0.0 2.0 0.00 0.00 0.00 74 1015.7
20210917033800 63 174 0.0 2.0 0.00 0.00 0.00 74 1015.6
20210917033700 64 174 0.0 2.0 0.00 0.00 0.00 74 1015.6
20210917033601 64 172 0.0 2.0 0.00 0.00 0.00 74 1015.6
20210917033501 64 172 0.0 2.0 0.00 0.00 0.00 74 1015.6
20210917033400 64 170 0.0 4.0 0.00 0.00 0.00 74 1015.6
20210917033300 64 169 0.0 4.0 0.00 0.00 0.00 74 1015.6
20210917033201 64 169 0.0 4.0 0.00 0.00 0.00 74 1015.5
20210917033100 64 169 0.0 4.0 0.00 0.00 0.00 74 1015.5
20210917033004 64 169 0.0 4.0 0.00 0.00 0.00 74 1015.4
20210917032900 64 168 0.0 4.0 0.00 0.00 0.00 74 1015.4
20210917032800 64 169 0.0 4.0 0.00 0.00 0.00 74 1015.4
20210917032700 64 169 0.0 4.0 0.00 0.00 0.00 74 1015.4
20210917032601 64 169 0.0 4.0 0.00 0.00 0.00 74 1015.4
20210917032500 64 169 0.0 4.0 0.00 0.00 0.00 74 1015.4
20210917032400 64 170 0.0 4.0 0.00 0.00 0.00 74 1015.4
20210917032300 64 170 0.0 4.0 0.00 0.00 0.00 73 1015.4
20210917032201 64 170 0.0 4.0 0.00 0.00 0.00 73 1015.4
20210917032100 64 169 0.0 4.0 0.00 0.00 0.00 74 1015.4
20210917032001 64 169 0.0 4.0 0.00 0.00 0.00 74 1015.4
20210917031901 64 169 0.0 4.0 0.00 0.00 0.00 73 1015.3
20210917031800 64 170 0.0 4.0 0.00 0.00 0.00 73 1015.3
20210917031700 64 170 0.0 4.0 0.00 0.00 0.00 73 1015.4
20210917031600 64 172 0.0 4.0 0.00 0.00 0.00 73 1015.4
20210917031502 64 172 0.0 4.0 0.00 0.00 0.00 73 1015.4
20210917031400 65 173 0.0 4.0 0.00 0.00 0.00 73 1015.3
20210917031300 65 173 0.0 4.0 0.00 0.00 0.00 73 1015.3
20210917031200 65 175 0.0 4.0 0.00 0.00 0.00 73 1015.3
20210917031100 65 175 0.0 4.0 0.00 0.00 0.00 73 1015.3
20210917031001 65 176 0.0 4.0 0.00 0.00 0.00 73 1015.2
20210917030901 65 175 0.0 5.0 0.00 0.00 0.00 73 1015.3
20210917030800 65 174 1.0 5.0 0.00 0.00 0.00 73 1015.3
20210917030700 65 174 1.0 5.0 0.00 0.00 0.00 73 1015.3
20210917030601 65 174 1.0 5.0 0.00 0.00 0.00 73 1015.2
20210917030501 65 172 1.0 5.0 0.00 0.00 0.00 73 1015.3
20210917030400 65 173 1.0 5.0 0.00 0.00 0.00 72 1015.2
20210917030300 65 178 1.0 5.0 0.00 0.00 0.00 72 1015.2
20210917030201 65 177 1.0 5.0 0.00 0.00 0.00 72 1015.1
20210917030101 65 177 1.0 5.0 0.00 0.00 0.00 72 1015.1
20210917030004 65 175 1.0 6.0 0.00 0.00 0.00 72 1015.0
20210917025901 65 176 2.0 6.0 0.00 0.00 0.00 72 1015.0
20210917025801 65 182 2.0 6.0 0.00 0.00 0.00 72 1015.0
20210917025700 65 184 2.0 6.0 0.00 0.00 0.00 72 1015.0
20210917025600 65 187 2.0 6.0 0.00 0.00 0.00 72 1014.9
20210917025501 65 191 2.0 6.0 0.00 0.00 0.00 72 1014.9
20210917025400 66 190 2.0 6.0 0.00 0.00 0.00 72 1014.8
20210917025300 66 191 2.0 6.0 0.00 0.00 0.00 72 1014.9
20210917025200 66 195 2.0 6.0 0.00 0.00 0.00 72 1014.9
20210917025100 66 195 2.0 6.0 0.00 0.00 0.00 72 1014.8
20210917025001 66 197 2.0 6.0 0.00 0.00 0.00 72 1014.8
20210917024900 66 198 2.0 7.0 0.00 0.00 0.00 72 1014.8
20210917024801 66 196 3.0 7.0 0.00 0.00 0.00 72 1014.8
20210917024700 66 197 3.0 7.0 0.00 0.00 0.00 72 1014.7
20210917024600 66 196 3.0 7.0 0.00 0.00 0.00 72 1014.7
20210917024500 66 197 3.0 7.0 0.00 0.00 0.00 72 1014.7
20210917024401 66 195 3.0 7.0 0.00 0.00 0.00 72 1014.7
20210917024301 66 196 3.0 7.0 0.00 0.00 0.00 72 1014.7
20210917024200 66 192 3.0 7.0 0.00 0.00 0.00 72 1014.7
20210917024100 66 194 3.0 7.0 0.00 0.00 0.00 72 1014.6
20210917024001 66 194 3.0 7.0 0.00 0.00 0.00 72 1014.6
20210917023901 66 194 3.0 9.0 0.00 0.00 0.00 72 1014.6
20210917023800 66 196 3.0 9.0 0.00 0.00 0.00 72 1014.6
20210917023700 66 192 3.0 11.0 0.00 0.00 0.00 72 1014.6
20210917023601 65 190 3.0 11.0 0.00 0.00 0.00 72 1014.6
20210917023501 65 188 3.0 11.0 0.00 0.00 0.00 72 1014.4
20210917023401 65 190 3.0 11.0 0.00 0.00 0.00 72 1014.5
20210917023300 65 188 3.0 11.0 0.00 0.00 0.00 72 1014.4
20210917023200 65 189 3.0 11.0 0.00 0.00 0.00 72 1014.4
20210917023100 65 187 3.0 11.0 0.00 0.00 0.00 72 1014.4
20210917023004 65 185 3.0 11.0 0.00 0.00 0.00 72 1014.4
20210917022900 65 183 2.0 11.0 0.00 0.00 0.00 72 1014.5
20210917022801 65 178 2.0 11.0 0.00 0.00 0.00 72 1014.5
20210917022700 65 183 2.0 7.0 0.00 0.00 0.00 72 1014.5
20210917022600 65 185 2.0 7.0 0.00 0.00 0.00 72 1014.6
20210917022500 65 185 2.0 7.0 0.00 0.00 0.00 73 1014.6
20210917022401 65 183 2.0 7.0 0.00 0.00 0.00 72 1014.6
20210917022300 65 184 2.0 6.0 0.00 0.00 0.00 73 1014.7
20210917022200 65 187 2.0 6.0 0.00 0.00 0.00 73 1014.6
20210917022100 65 191 2.0 6.0 0.00 0.00 0.00 73 1014.7
20210917022001 65 192 2.0 6.0 0.00 0.00 0.00 72 1014.7
20210917021900 65 194 2.0 6.0 0.00 0.00 0.00 72 1014.7
20210917021801 65 195 2.0 6.0 0.00 0.00 0.00 72 1014.7
20210917021700 65 193 2.0 4.0 0.00 0.00 0.00 72 1014.7
20210917021600 65 192 2.0 5.0 0.00 0.00 0.00 72 1014.7
20210917021500 65 196 2.0 5.0 0.00 0.00 0.00 72 1014.8
20210917021401 65 201 2.0 5.0 0.00 0.00 0.00 72 1014.8
20210917021300 65 203 1.0 5.0 0.00 0.00 0.00 72 1014.8
20210917021200 65 203 1.0 5.0 0.00 0.00 0.00 72 1014.9
20210917021100 65 207 1.0 5.0 0.00 0.00 0.00 72 1014.9
20210917021001 65 208 1.0 5.0 0.00 0.00 0.00 72 1014.9
20210917020900 65 211 1.0 5.0 0.00 0.00 0.00 72 1014.9
20210917020801 65 211 2.0 5.0 0.00 0.00 0.00 72 1014.9
20210917020700 65 209 2.0 5.0 0.00 0.00 0.00 72 1014.9
20210917020600 65 211 1.0 4.0 0.00 0.00 0.00 72 1014.9
20210917020501 65 208 1.0 4.0 0.00 0.00 0.00 72 1015.0
20210917020400 65 205 1.0 4.0 0.00 0.00 0.00 72 1015.0
20210917020301 65 200 1.0 4.0 0.00 0.00 0.00 72 1014.9
20210917020200 65 195 1.0 4.0 0.00 0.00 0.00 72 1015.0
20210917020100 65 182 1.0 6.0 0.00 0.00 0.00 72 1014.9
20210917020005 65 177 1.0 6.0 0.00 0.00 0.00 72 1014.9
20210917015900 65 170 1.0 6.0 0.00 0.00 0.00 72 1014.9
20210917015801 65 163 1.0 6.0 0.00 0.00 0.00 72 1014.9
20210917015700 65 161 1.0 6.0 0.00 0.00 0.00 72 1014.9
20210917015600 65 160 1.0 8.0 0.00 0.00 0.00 72 1014.9
20210917015500 66 162 1.0 8.0 0.00 0.00 0.00 72 1014.8
20210917015401 66 160 2.0 8.0 0.00 0.00 0.00 72 1014.9
20210917015300 66 159 2.0 8.0 0.00 0.00 0.00 72 1014.8
20210917015200 66 160 2.0 8.0 0.00 0.00 0.00 72 1014.9
20210917015100 66 162 2.0 8.0 0.00 0.00 0.00 72 1014.9
20210917015001 66 161 2.0 8.0 0.00 0.00 0.00 72 1014.9
20210917014900 66 163 2.0 8.0 0.00 0.00 0.00 72 1014.9
20210917014801 66 164 2.0 8.0 0.00 0.00 0.00 72 1014.9
20210917014700 66 165 2.0 8.0 0.00 0.00 0.00 72 1014.9
20210917014600 66 166 2.0 7.0 0.00 0.00 0.00 72 1014.9
20210917014500 66 164 2.0 7.0 0.00 0.00 0.00 72 1015.0
20210917014401 66 165 2.0 7.0 0.00 0.00 0.00 72 1015.0
20210917014300 66 166 2.0 7.0 0.00 0.00 0.00 72 1015.0
20210917014200 66 167 2.0 8.0 0.00 0.00 0.00 72 1015.0
20210917014100 66 166 2.0 8.0 0.00 0.00 0.00 72 1015.0
20210917014000 66 165 2.0 8.0 0.00 0.00 0.00 72 1015.0
20210917013901 66 164 2.0 8.0 0.00 0.00 0.00 72 1015.0
20210917013800 66 162 2.0 8.0 0.00 0.00 0.00 72 1015.0
20210917013700 66 161 2.0 8.0 0.00 0.00 0.00 72 1015.0
20210917013601 66 161 2.0 8.0 0.00 0.00 0.00 72 1015.0
20210917013501 66 162 2.0 8.0 0.00 0.00 0.00 72 1015.0
20210917013400 66 160 2.0 8.0 0.00 0.00 0.00 72 1015.0
20210917013300 66 161 2.0 8.0 0.00 0.00 0.00 72 1015.0
20210917013201 66 160 2.0 8.0 0.00 0.00 0.00 72 1015.0
20210917013101 66 159 2.0 8.0 0.00 0.00 0.00 72 1015.0
20210917013004 66 160 2.0 8.0 0.00 0.00 0.00 72 1015.0
20210917012900 66 161 2.0 8.0 0.00 0.00 0.00 72 1015.0
20210917012800 66 162 1.0 8.0 0.00 0.00 0.00 72 1015.0
20210917012700 66 164 2.0 8.0 0.00 0.00 0.00 72 1015.0
20210917012600 66 163 1.0 8.0 0.00 0.00 0.00 72 1015.1
20210917012501 66 161 1.0 8.0 0.00 0.00 0.00 72 1015.1
20210917012400 66 164 1.0 5.0 0.00 0.00 0.00 72 1015.1
20210917012300 66 164 1.0 5.0 0.00 0.00 0.00 72 1015.1
20210917012201 66 167 1.0 5.0 0.00 0.00 0.00 72 1015.1
20210917012100 66 172 1.0 5.0 0.00 0.00 0.00 72 1015.1
20210917012000 66 176 1.0 5.0 0.00 0.00 0.00 72 1015.1
20210917011900 66 178 1.0 5.0 0.00 0.00 0.00 72 1015.1
20210917011801 66 181 1.0 5.0 0.00 0.00 0.00 72 1015.2
20210917011700 66 184 1.0 5.0 0.00 0.00 0.00 72 1015.2
20210917011600 66 187 1.0 5.0 0.00 0.00 0.00 72 1015.2
20210917011502 66 192 1.0 4.0 0.00 0.00 0.00 72 1015.2
20210917011400 66 190 1.0 5.0 0.00 0.00 0.00 71 1015.2
20210917011300 66 191 1.0 5.0 0.00 0.00 0.00 71 1015.2
20210917011200 66 189 1.0 5.0 0.00 0.00 0.00 71 1015.2
20210917011100 66 188 1.0 5.0 0.00 0.00 0.00 71 1015.2
20210917011000 66 187 1.0 5.0 0.00 0.00 0.00 71 1015.1
20210917010900 66 183 1.0 5.0 0.00 0.00 0.00 71 1015.2
20210917010800 66 177 1.0 5.0 0.00 0.00 0.00 71 1015.1
20210917010700 66 173 1.0 5.0 0.00 0.00 0.00 71 1015.2
20210917010600 66 176 1.0 5.0 0.00 0.00 0.00 71 1015.1
20210917010501 66 177 1.0 5.0 0.00 0.00 0.00 71 1015.1
20210917010400 66 179 1.0 4.0 0.00 0.00 0.00 71 1015.1
20210917010300 66 179 1.0 4.0 0.00 0.00 0.00 71 1015.1
20210917010200 66 181 1.0 4.0 0.00 0.00 0.00 71 1015.1
20210917010100 66 182 1.0 4.0 0.00 0.00 0.00 71 1015.1
20210917010003 67 182 1.0 4.0 0.00 0.00 0.00 71 1015.1
20210917005900 67 184 1.0 4.0 0.00 0.00 0.00 70 1015.1
20210917005800 67 189 1.0 3.0 0.00 0.00 0.00 70 1015.1
20210917005700 67 194 1.0 3.0 0.00 0.00 0.00 70 1015.1
20210917005600 67 191 1.0 3.0 0.00 0.00 0.00 70 1015.1
20210917005501 67 190 1.0 3.0 0.00 0.00 0.00 70 1015.1
20210917005400 67 189 1.0 3.0 0.00 0.00 0.00 70 1015.1
20210917005300 67 187 1.0 3.0 0.00 0.00 0.00 70 1015.1
20210917005200 67 187 1.0 3.0 0.00 0.00 0.00 70 1015.1
20210917005100 67 185 1.0 3.0 0.00 0.00 0.00 70 1015.1
20210917005001 67 184 1.0 3.0 0.00 0.00 0.00 69 1015.1
20210917004900 67 181 1.0 3.0 0.00 0.00 0.00 69 1015.1
20210917004800 67 175 1.0 3.0 0.00 0.00 0.00 69 1015.1
20210917004701 67 173 1.0 3.0 0.00 0.00 0.00 70 1015.1
20210917004600 67 174 1.0 3.0 0.00 0.00 0.00 69 1015.1
20210917004502 67 172 1.0 5.0 0.00 0.00 0.00 69 1015.1
20210917004400 67 172 1.0 5.0 0.00 0.00 0.00 69 1015.1
20210917004300 67 171 1.0 5.0 0.00 0.00 0.00 69 1015.1
20210917004200 67 168 1.0 6.0 0.00 0.00 0.00 69 1015.1
20210917004101 67 165 1.0 6.0 0.00 0.00 0.00 69 1015.1
20210917004000 67 165 1.0 6.0 0.00 0.00 0.00 69 1015.1
20210917003900 68 165 1.0 6.0 0.00 0.00 0.00 69 1015.1
20210917003800 68 166 2.0 6.0 0.00 0.00 0.00 69 1015.1
20210917003700 68 163 2.0 7.0 0.00 0.00 0.00 69 1015.1
20210917003600 68 160 2.0 7.0 0.00 0.00 0.00 69 1015.1
20210917003501 68 159 2.0 7.0 0.00 0.00 0.00 69 1015.1
20210917003401 68 159 2.0 7.0 0.00 0.00 0.00 69 1015.2
20210917003300 68 158 2.0 7.0 0.00 0.00 0.00 69 1015.1
20210917003200 68 160 2.0 7.0 0.00 0.00 0.00 68 1015.1
20210917003100 68 161 2.0 8.0 0.00 0.00 0.00 69 1015.1
20210917003005 68 161 2.0 8.0 0.00 0.00 0.00 68 1015.1
20210917002900 68 161 2.0 8.0 0.00 0.00 0.00 68 1015.0
20210917002800 68 160 2.0 8.0 0.00 0.00 0.00 68 1015.0
20210917002700 68 161 2.0 8.0 0.00 0.00 0.00 68 1015.0
20210917002600 68 162 2.0 8.0 0.00 0.00 0.00 68 1015.0
20210917002500 68 163 2.0 8.0 0.00 0.00 0.00 68 1015.0
20210917002400 68 163 2.0 9.0 0.00 0.00 0.00 68 1015.0
20210917002300 68 162 3.0 9.0 0.00 0.00 0.00 68 1015.0
20210917002200 68 160 3.0 9.0 0.00 0.00 0.00 68 1015.0
20210917002100 68 159 3.0 9.0 0.00 0.00 0.00 68 1015.0
20210917002001 68 160 3.0 9.0 0.00 0.00 0.00 68 1015.0
20210917001900 68 160 3.0 9.0 0.00 0.00 0.00 67 1015.0
20210917001800 68 161 3.0 9.0 0.00 0.00 0.00 67 1015.1
20210917001700 68 162 2.0 9.0 0.00 0.00 0.00 67 1015.1
20210917001600 68 162 3.0 9.0 0.00 0.00 0.00 67 1015.1
20210917001500 69 161 2.0 9.0 0.00 0.00 0.00 67 1015.2
20210917001400 69 160 2.0 7.0 0.00 0.00 0.00 67 1015.2
20210917001300 69 160 2.0 7.0 0.00 0.00 0.00 67 1015.2
20210917001200 69 159 2.0 7.0 0.00 0.00 0.00 66 1015.2
20210917001100 69 159 2.0 7.0 0.00 0.00 0.00 66 1015.2
20210917001000 69 158 2.0 7.0 0.00 0.00 0.00 66 1015.2
20210917000900 69 157 2.0 7.0 0.00 0.00 0.00 66 1015.2
20210917000801 69 157 2.0 7.0 0.00 0.00 0.00 66 1015.2
20210917000700 69 155 2.0 7.0 0.00 0.00 0.00 66 1015.2
20210917000601 69 154 2.0 7.0 0.00 0.00 0.00 65 1015.2
20210917000501 69 156 2.0 7.0 0.00 0.00 0.00 65 1015.2
20210917000401 70 157 2.0 7.0 0.00 0.00 0.00 65 1015.2
20210917000300 70 157 2.0 7.0 0.00 0.00 0.00 65 1015.2
20210917000200 70 159 2.0 5.0 0.00 0.00 0.00 65 1015.2
20210917000100 70 162 2.0 5.0 0.00 0.00 0.00 65 1015.2
20210917000002 70 162 1.0 5.0 0.00 0.00 0.00 65 1015.2
20210916235900 70 163 1.0 5.0 0.00 0.00 0.00 64 1015.2
20210916235800 70 163 1.0 5.0 0.00 0.00 0.00 64 1015.2
20210916235700 70 162 1.0 5.0 0.00 0.00 0.00 64 1015.2
20210916235600 70 163 1.0 5.0 0.00 0.00 0.00 64 1015.2
20210916235500 70 162 1.0 5.0 0.00 0.00 0.00 64 1015.2
20210916235400 70 162 1.0 5.0 0.00 0.00 0.00 64 1015.2
20210916235300 71 162 1.0 5.0 0.00 0.00 0.00 63 1015.2
20210916235200 71 161 1.0 4.0 0.00 0.00 0.00 64 1015.2
20210916235059 71 158 1.0 4.0 0.00 0.00 0.00 63 1015.2
20210916235000 71 158 1.0 4.0 0.00 0.00 0.00 63 1015.2
20210916234900 71 157 1.0 4.0 0.00 0.00 0.00 63 1015.2
20210916234800 71 160 1.0 4.0 0.00 0.00 0.00 63 1015.2
20210916234700 71 163 1.0 3.0 0.00 0.00 0.00 63 1015.2
20210916234600 71 166 1.0 3.0 0.00 0.00 0.00 62 1015.3
20210916234500 72 168 1.0 3.0 0.00 0.00 0.00 63 1015.2
20210916234400 72 169 1.0 3.0 0.00 0.00 0.00 62 1015.3
20210916234259 72 172 1.0 3.0 0.00 0.00 0.00 62 1015.3
20210916234201 72 178 0.0 3.0 0.00 0.00 0.00 62 1015.3
20210916234100 72 178 0.0 3.0 0.00 0.00 0.00 62 1015.3
20210916234000 72 177 0.0 3.0 0.00 0.00 0.00 62 1015.3
20210916233900 72 177 0.0 3.0 0.00 0.00 0.00 62 1015.3
20210916233800 72 177 0.0 3.0 0.00 0.00 0.00 62 1015.3
20210916233700 72 177 0.0 3.0 0.00 0.00 0.00 61 1015.3